Wetterdaten: Dienstag, 25.02.2014
Datum Zeit Temp. Aussen +5cm Feuchte Auss Luftdruck Regen Sonnenschein Regendauer UV Solar Windben
25.02.2014 00:00 6,7 C 5,0 C 82 % 1011,1 hPa 0,0 l/m 0 min 0 min 0,0 UV-I 0 W/m 12,9 km/h (3 Bft)
25.02.2014 00:02 6,7 C 4,4 C 82 % 1011,1 hPa 0,0 l/m 0 min 0 min 0,0 UV-I 0 W/m 2,6 km/h (1 Bft)
25.02.2014 00:06 6,7 C 4,4 C 81 % 1011,2 hPa 0,0 l/m 0 min 0 min 0,0 UV-I 0 W/m 7,7 km/h (2 Bft)
25.02.2014 00:08 6,7 C 4,4 C 81 % 1011,1 hPa 0,0 l/m 0 min 0 min 0,0 UV-I 0 W/m 7,7 km/h (2 Bft)
25.02.2014 00:10 6,6 C 4,4 C 82 % 1011,1 hPa 0,0 l/m 0 min 0 min 0,0 UV-I 0 W/m 12,9 km/h (3 Bft)
25.02.2014 00:12 6,6 C 4,4 C 82 % 1011,1 hPa 0,0 l/m 0 min 0 min 0,0 UV-I 0 W/m 10,3 km/h (2 Bft)
25.02.2014 00:14 6,6 C 4,4 C 82 % 1011,1 hPa 0,0 l/m 0 min 0 min 0,0 UV-I 0 W/m 10,3 km/h (2 Bft)
25.02.2014 00:16 6,6 C 4,4 C 82 % 1011,1 hPa 0,0 l/m 0 min 0 min 0,0 UV-I 0 W/m 12,9 km/h (3 Bft)
25.02.2014 00:18 6,6 C 4,4 C 82 % 1011,0 hPa 0,0 l/m 0 min 0 min 0,0 UV-I 0 W/m 12,9 km/h (3 Bft)
25.02.2014 00:20 6,6 C 4,4 C 82 % 1011,0 hPa 0,0 l/m 0 min 0 min 0,0 UV-I 0 W/m 15,4 km/h (3 Bft)
25.02.2014 00:22 6,6 C 4,4 C 82 % 1011,0 hPa 0,0 l/m 0 min 0 min 0,0 UV-I 0 W/m 10,3 km/h (2 Bft)
25.02.2014 00:24 6,6 C 4,4 C 82 % 1011,0 hPa 0,0 l/m 0 min 0 min 0,0 UV-I 0 W/m 12,9 km/h (3 Bft)
25.02.2014 00:26 6,6 C 4,4 C 82 % 1011,0 hPa 0,0 l/m 0 min 0 min 0,0 UV-I 0 W/m 7,7 km/h (2 Bft)
25.02.2014 00:28 6,5 C 4,4 C 82 % 1011,1 hPa 0,0 l/m 0 min 0 min 0,0 UV-I 0 W/m 7,7 km/h (2 Bft)
25.02.2014 00:30 6,5 C 4,4 C 82 % 1011,0 hPa 0,0 l/m 0 min 0 min 0,0 UV-I 0 W/m 0,0 km/h (0 Bft)
25.02.2014 00:32 6,4 C 4,4 C 82 % 1011,0 hPa 0,0 l/m 0 min 0 min 0,0 UV-I 0 W/m 0,0 km/h (0 Bft)
25.02.2014 00:34 6,4 C 4,4 C 82 % 1011,0 hPa 0,0 l/m 0 min 0 min 0,0 UV-I 0 W/m 10,3 km/h (2 Bft)
25.02.2014 00:36 6,4 C 4,4 C 82 % 1010,9 hPa 0,0 l/m 0 min 0 min 0,0 UV-I 0 W/m 10,3 km/h (2 Bft)
25.02.2014 00:38 6,4 C 4,4 C 83 % 1010,9 hPa 0,0 l/m 0 min 0 min 0,0 UV-I 0 W/m 10,3 km/h (2 Bft)
25.02.2014 00:40 6,4 C 4,4 C 83 % 1010,9 hPa 0,0 l/m 0 min 0 min 0,0 UV-I 0 W/m 5,1 km/h (1 Bft)
25.02.2014 00:42 6,4 C 4,4 C 83 % 1010,9 hPa 0,0 l/m 0 min 0 min 0,0 UV-I 0 W/m 10,3 km/h (2 Bft)
25.02.2014 00:44 6,4 C 4,4 C 83 % 1010,8 hPa 0,0 l/m 0 min 0 min 0,0 UV-I 0 W/m 7,7 km/h (2 Bft)
25.02.2014 00:46 6,3 C 4,4 C 83 % 1010,8 hPa 0,0 l/m 0 min 0 min 0,0 UV-I 0 W/m 7,7 km/h (2 Bft)
25.02.2014 00:48 6,3 C 4,4 C 83 % 1010,8 hPa 0,0 l/m 0 min 0 min 0,0 UV-I 0 W/m 5,1 km/h (1 Bft)
25.02.2014 00:50 6,3 C 4,4 C 83 % 1010,8 hPa 0,0 l/m 0 min 0 min 0,0 UV-I 0 W/m 12,9 km/h (3 Bft)
25.02.2014 00:52 6,3 C 4,4 C 83 % 1010,8 hPa 0,0 l/m 0 min 0 min 0,0 UV-I 0 W/m 10,3 km/h (2 Bft)
25.02.2014 00:54 6,3 C 4,4 C 83 % 1010,8 hPa 0,0 l/m 0 min 0 min 0,0 UV-I 0 W/m 0,0 km/h (0 Bft)
25.02.2014 00:56 6,2 C 4,4 C 83 % 1010,8 hPa 0,0 l/m 0 min 0 min 0,0 UV-I 0 W/m 15,4 km/h (3 Bft)
25.02.2014 00:58 6,2 C 4,4 C 83 % 1010,8 hPa 0,0 l/m 0 min 0 min 0,0 UV-I 0 W/m 12,9 km/h (3 Bft)
25.02.2014 01:00 6,2 C 4,4 C 83 % 1010,8 hPa 0,0 l/m 0 min 0 min 0,0 UV-I 0 W/m 10,3 km/h (2 Bft)
25.02.2014 01:02 6,2 C 4,4 C 83 % 1010,8 hPa 0,0 l/m 0 min 0 min 0,0 UV-I 0 W/m 10,3 km/h (2 Bft)
25.02.2014 01:04 6,2 C 4,4 C 83 % 1010,8 hPa 0,0 l/m 0 min 0 min 0,0 UV-I 0 W/m 2,6 km/h (1 Bft)
25.02.2014 01:06 6,2 C 4,4 C 83 % 1010,8 hPa 0,0 l/m 0 min 0 min 0,0 UV-I 0 W/m 15,4 km/h (3 Bft)
25.02.2014 01:08 6,2 C 4,4 C 83 % 1010,8 hPa 0,0 l/m 0 min 0 min 0,0 UV-I 0 W/m 12,9 km/h (3 Bft)
25.02.2014 01:10 6,2 C 4,4 C 83 % 1010,7 hPa 0,0 l/m 0 min 0 min 0,0 UV-I 0 W/m 10,3 km/h (2 Bft)
25.02.2014 01:12 6,2 C 4,4 C 83 % 1010,7 hPa 0,0 l/m 0 min 0 min 0,0 UV-I 0 W/m 10,3 km/h (2 Bft)
25.02.2014 01:14 6,2 C 4,4 C 83 % 1010,7 hPa 0,0 l/m 0 min 0 min 0,0 UV-I 0 W/m 7,7 km/h (2 Bft)
25.02.2014 01:16 6,2 C 4,4 C 84 % 1010,7 hPa 0,0 l/m 0 min 0 min 0,0 UV-I 0 W/m 12,9 km/h (3 Bft)
25.02.2014 01:18 6,2 C 4,4 C 83 % 1010,7 hPa 0,0 l/m 0 min 0 min 0,0 UV-I 0 W/m 12,9 km/h (3 Bft)
25.02.2014 01:20 6,2 C 4,4 C 83 % 1010,6 hPa 0,0 l/m 0 min 0 min 0,0 UV-I 0 W/m 12,9 km/h (3 Bft)
25.02.2014 01:22 6,2 C 4,4 C 83 % 1010,6 hPa 0,0 l/m 0 min 0 min 0,0 UV-I 0 W/m 15,4 km/h (3 Bft)
25.02.2014 01:24 6,2 C 4,4 C 83 % 1010,6 hPa 0,0 l/m 0 min 0 min 0,0 UV-I 0 W/m 12,9 km/h (3 Bft)
25.02.2014 01:26 6,2 C 4,4 C 83 % 1010,6 hPa 0,0 l/m 0 min 0 min 0,0 UV-I 0 W/m 10,3 km/h (2 Bft)
25.02.2014 01:28 6,2 C 4,4 C 83 % 1010,6 hPa 0,0 l/m 0 min 0 min 0,0 UV-I 0 W/m 12,9 km/h (3 Bft)
25.02.2014 01:30 6,3 C 4,4 C 83 % 1010,5 hPa 0,0 l/m 0 min 0 min 0,0 UV-I 0 W/m 20,6 km/h (4 Bft)
25.02.2014 01:32 6,3 C 4,4 C 83 % 1010,5 hPa 0,0 l/m 0 min 0 min 0,0 UV-I 0 W/m 12,9 km/h (3 Bft)
25.02.2014 01:34 6,3 C 4,4 C 83 % 1010,5 hPa 0,0 l/m 0 min 0 min 0,0 UV-I 0 W/m 12,9 km/h (3 Bft)
25.02.2014 01:36 6,3 C 4,4 C 83 % 1010,5 hPa 0,0 l/m 0 min 0 min 0,0 UV-I 0 W/m 7,7 km/h (2 Bft)
25.02.2014 01:38 6,3 C 4,4 C 83 % 1010,5 hPa 0,0 l/m 0 min 0 min 0,0 UV-I 0 W/m 10,3 km/h (2 Bft)
25.02.2014 01:40 6,2 C 4,4 C 83 % 1010,5 hPa 0,0 l/m 0 min 0 min 0,0 UV-I 0 W/m 10,3 km/h (2 Bft)
25.02.2014 01:42 6,2 C 4,4 C 83 % 1010,5 hPa 0,0 l/m 0 min 0 min 0,0 UV-I 0 W/m 15,4 km/h (3 Bft)
25.02.2014 01:44 6,2 C 4,4 C 83 % 1010,5 hPa 0,0 l/m 0 min 0 min 0,0 UV-I 0 W/m 12,9 km/h (3 Bft)
25.02.2014 01:46 6,2 C 4,4 C 83 % 1010,5 hPa 0,0 l/m 0 min 0 min 0,0 UV-I 0 W/m 15,4 km/h (3 Bft)
25.02.2014 01:48 6,2 C 4,4 C 83 % 1010,4 hPa 0,0 l/m 0 min 0 min 0,0 UV-I 0 W/m 10,3 km/h (2 Bft)
25.02.2014 01:50 6,2 C 4,4 C 84 % 1010,4 hPa 0,0 l/m 0 min 0 min 0,0 UV-I 0 W/m 7,7 km/h (2 Bft)
25.02.2014 01:52 6,1 C 4,4 C 84 % 1010,4 hPa 0,0 l/m 0 min 0 min 0,0 UV-I 0 W/m 7,7 km/h (2 Bft)
25.02.2014 01:54 6,1 C 4,4 C 84 % 1010,4 hPa 0,0 l/m 0 min 0 min 0,0 UV-I 0 W/m 0,0 km/h (0 Bft)
25.02.2014 01:56 6,1 C 4,4 C 84 % 1010,4 hPa 0,0 l/m 0 min 0 min 0,0 UV-I 0 W/m 10,3 km/h (2 Bft)
25.02.2014 01:58 6,0 C 4,4 C 84 % 1010,4 hPa 0,0 l/m 0 min 0 min 0,0 UV-I 0 W/m 12,9 km/h (3 Bft)
25.02.2014 02:00 6,0 C 4,4 C 84 % 1010,3 hPa 0,0 l/m 0 min 0 min 0,0 UV-I 0 W/m 10,3 km/h (2 Bft)
25.02.2014 02:02 6,0 C 4,4 C 84 % 1010,3 hPa 0,0 l/m 0 min 0 min 0,0 UV-I 0 W/m 10,3 km/h (2 Bft)
25.02.2014 02:04 6,0 C 4,4 C 84 % 1010,3 hPa 0,0 l/m 0 min 0 min 0,0 UV-I 0 W/m 10,3 km/h (2 Bft)
25.02.2014 02:06 5,9 C 3,9 C 84 % 1010,3 hPa 0,0 l/m 0 min 0 min 0,0 UV-I 0 W/m 10,3 km/h (2 Bft)
25.02.2014 02:08 5,9 C 3,9 C 85 % 1010,2 hPa 0,0 l/m 0 min 0 min 0,0 UV-I 0 W/m 7,7 km/h (2 Bft)
25.02.2014 02:10 5,9 C 3,9 C 85 % 1010,3 hPa 0,0 l/m 0 min 0 min 0,0 UV-I 0 W/m 7,7 km/h (2 Bft)
25.02.2014 02:12 5,9 C 4,4 C 85 % 1010,2 hPa 0,0 l/m 0 min 0 min 0,0 UV-I 0 W/m 10,3 km/h (2 Bft)
25.02.2014 02:14 5,9 C 3,9 C 85 % 1010,2 hPa 0,0 l/m 0 min 0 min 0,0 UV-I 0 W/m 10,3 km/h (2 Bft)
25.02.2014 02:16 5,9 C 3,9 C 85 % 1010,2 hPa 0,0 l/m 0 min 0 min 0,0 UV-I 0 W/m 10,3 km/h (2 Bft)
25.02.2014 02:18 5,9 C 3,9 C 85 % 1010,2 hPa 0,0 l/m 0 min 0 min 0,0 UV-I 0 W/m 7,7 km/h (2 Bft)
25.02.2014 02:20 5,9 C 3,9 C 85 % 1010,2 hPa 0,0 l/m 0 min 0 min 0,0 UV-I 0 W/m 7,7 km/h (2 Bft)
25.02.2014 02:22 5,9 C 3,9 C 85 % 1010,2 hPa 0,0 l/m 0 min 0 min 0,0 UV-I 0 W/m 7,7 km/h (2 Bft)
25.02.2014 02:24 5,9 C 3,9 C 85 % 1010,1 hPa 0,0 l/m 0 min 0 min 0,0 UV-I 0 W/m 0,0 km/h (0 Bft)
25.02.2014 02:26 5,8 C 3,9 C 85 % 1010,2 hPa 0,0 l/m 0 min 0 min 0,0 UV-I 0 W/m 5,1 km/h (1 Bft)
25.02.2014 02:28 5,8 C 3,9 C 85 % 1010,2 hPa 0,0 l/m 0 min 0 min 0,0 UV-I 0 W/m 0,0 km/h (0 Bft)
25.02.2014 02:30 5,8 C 3,9 C 85 % 1010,2 hPa 0,0 l/m 0 min 0 min 0,0 UV-I 0 W/m 10,3 km/h (2 Bft)
25.02.2014 02:32 5,8 C 3,9 C 85 % 1010,1 hPa 0,0 l/m 0 min 0 min 0,0 UV-I 0 W/m 7,7 km/h (2 Bft)
25.02.2014 02:34 5,8 C 3,9 C 85 % 1010,0 hPa 0,0 l/m 0 min 0 min 0,0 UV-I 0 W/m 12,9 km/h (3 Bft)
25.02.2014 02:36 5,9 C 3,9 C 85 % 1010,0 hPa 0,0 l/m 0 min 0 min 0,0 UV-I 0 W/m 7,7 km/h (2 Bft)
25.02.2014 02:38 5,9 C 3,9 C 85 % 1010,1 hPa 0,0 l/m 0 min 0 min 0,0 UV-I 0 W/m 5,1 km/h (1 Bft)
25.02.2014 02:40 5,9 C 3,9 C 85 % 1010,1 hPa 0,0 l/m 0 min 0 min 0,0 UV-I 0 W/m 10,3 km/h (2 Bft)
25.02.2014 02:42 5,9 C 3,9 C 85 % 1010,0 hPa 0,0 l/m 0 min 0 min 0,0 UV-I 0 W/m 10,3 km/h (2 Bft)
25.02.2014 02:44 5,9 C 3,9 C 85 % 1010,1 hPa 0,0 l/m 0 min 0 min 0,0 UV-I 0 W/m 5,1 km/h (1 Bft)
25.02.2014 02:46 5,8 C 3,9 C 85 % 1010,1 hPa 0,0 l/m 0 min 0 min 0,0 UV-I 0 W/m 7,7 km/h (2 Bft)
25.02.2014 02:48 5,8 C 3,9 C 85 % 1010,0 hPa 0,0 l/m 0 min 0 min 0,0 UV-I 0 W/m 10,3 km/h (2 Bft)
25.02.2014 02:50 5,8 C 3,9 C 85 % 1010,1 hPa 0,0 l/m 0 min 0 min 0,0 UV-I 0 W/m 10,3 km/h (2 Bft)
25.02.2014 02:52 5,8 C 3,9 C 85 % 1009,9 hPa 0,0 l/m 0 min 0 min 0,0 UV-I 0 W/m 7,7 km/h (2 Bft)
25.02.2014 02:54 5,8 C 3,9 C 85 % 1010,0 hPa 0,0 l/m 0 min 0 min 0,0 UV-I 0 W/m 10,3 km/h (2 Bft)
25.02.2014 02:56 5,8 C 3,9 C 85 % 1009,9 hPa 0,0 l/m 0 min 0 min 0,0 UV-I 0 W/m 12,9 km/h (3 Bft)
25.02.2014 02:58 5,8 C 3,9 C 85 % 1009,9 hPa 0,0 l/m 0 min 0 min 0,0 UV-I 0 W/m 7,7 km/h (2 Bft)
25.02.2014 03:00 5,8 C 3,9 C 85 % 1009,9 hPa 0,0 l/m 0 min 0 min 0,0 UV-I 0 W/m 7,7 km/h (2 Bft)
25.02.2014 03:02 5,8 C 3,9 C 85 % 1009,9 hPa 0,0 l/m 0 min 0 min 0,0 UV-I 0 W/m 12,9 km/h (3 Bft)
25.02.2014 03:04 5,8 C 3,9 C 85 % 1009,8 hPa 0,0 l/m 0 min 0 min 0,0 UV-I 0 W/m 18,0 km/h (3 Bft)
25.02.2014 03:06 5,8 C 3,9 C 85 % 1009,8 hPa 0,0 l/m 0 min 0 min 0,0 UV-I 0 W/m 12,9 km/h (3 Bft)
25.02.2014 03:08 5,8 C 3,9 C 85 % 1009,9 hPa 0,0 l/m 0 min 0 min 0,0 UV-I 0 W/m 15,4 km/h (3 Bft)
25.02.2014 03:10 5,9 C 4,4 C 85 % 1009,8 hPa 0,0 l/m 0 min 0 min 0,0 UV-I 0 W/m 12,9 km/h (3 Bft)
25.02.2014 03:12 5,9 C 4,4 C 85 % 1009,8 hPa 0,0 l/m 0 min 0 min 0,0 UV-I 0 W/m 12,9 km/h (3 Bft)
25.02.2014 03:14 5,9 C 4,4 C 85 % 1009,8 hPa 0,0 l/m 0 min 0 min 0,0 UV-I 0 W/m 7,7 km/h (2 Bft)
25.02.2014 03:16 5,9 C 3,9 C 85 % 1009,8 hPa 0,0 l/m 0 min 0 min 0,0 UV-I 0 W/m 5,1 km/h (1 Bft)
25.02.2014 03:18 5,9 C 3,9 C 85 % 1009,8 hPa 0,0 l/m 0 min 0 min 0,0 UV-I 0 W/m 7,7 km/h (2 Bft)
25.02.2014 03:20 5,9 C 3,9 C 85 % 1009,7 hPa 0,0 l/m 0 min 0 min 0,0 UV-I 0 W/m 7,7 km/h (2 Bft)
25.02.2014 03:22 5,9 C 4,4 C 85 % 1009,7 hPa 0,0 l/m 0 min 0 min 0,0 UV-I 0 W/m 15,4 km/h (3 Bft)
25.02.2014 03:24 5,9 C 4,4 C 85 % 1009,7 hPa 0,0 l/m 0 min 0 min 0,0 UV-I 0 W/m 12,9 km/h (3 Bft)
25.02.2014 03:26 5,9 C 4,4 C 85 % 1009,6 hPa 0,0 l/m 0 min 0 min 0,0 UV-I 0 W/m 12,9 km/h (3 Bft)
25.02.2014 03:28 5,9 C 4,4 C 85 % 1009,6 hPa 0,0 l/m 0 min 0 min 0,0 UV-I 0 W/m 12,9 km/h (3 Bft)
25.02.2014 03:30 5,9 C 4,4 C 85 % 1009,6 hPa 0,0 l/m 0 min 0 min 0,0 UV-I 0 W/m 15,4 km/h (3 Bft)
25.02.2014 03:32 5,9 C 4,4 C 85 % 1009,6 hPa 0,0 l/m 0 min 0 min 0,0 UV-I 0 W/m 12,9 km/h (3 Bft)
25.02.2014 03:34 5,9 C 4,4 C 85 % 1009,6 hPa 0,0 l/m 0 min 0 min 0,0 UV-I 0 W/m 10,3 km/h (2 Bft)
25.02.2014 03:36 5,9 C 3,9 C 85 % 1009,5 hPa 0,0 l/m 0 min 0 min 0,0 UV-I 0 W/m 10,3 km/h (2 Bft)
25.02.2014 03:38 5,9 C 4,4 C 85 % 1009,5 hPa 0,0 l/m 0 min 0 min 0,0 UV-I 0 W/m 10,3 km/h (2 Bft)
25.02.2014 03:40 5,9 C 3,9 C 85 % 1009,5 hPa 0,0 l/m 0 min 0 min 0,0 UV-I 0 W/m 10,3 km/h (2 Bft)
25.02.2014 03:42 5,9 C 4,4 C 85 % 1009,5 hPa 0,0 l/m 0 min 0 min 0,0 UV-I 0 W/m 12,9 km/h (3 Bft)
25.02.2014 03:44 5,9 C 4,4 C 85 % 1009,5 hPa 0,0 l/m 0 min 0 min 0,0 UV-I 0 W/m 10,3 km/h (2 Bft)
25.02.2014 03:46 5,9 C 4,4 C 85 % 1009,5 hPa 0,0 l/m 0 min 0 min 0,0 UV-I 0 W/m 15,4 km/h (3 Bft)
25.02.2014 03:48 5,9 C 4,4 C 85 % 1009,5 hPa 0,0 l/m 0 min 0 min 0,0 UV-I 0 W/m 10,3 km/h (2 Bft)
25.02.2014 03:50 5,9 C 4,4 C 85 % 1009,5 hPa 0,0 l/m 0 min 0 min 0,0 UV-I 0 W/m 12,9 km/h (3 Bft)
25.02.2014 03:52 5,9 C 3,9 C 85 % 1009,5 hPa 0,0 l/m 0 min 0 min 0,0 UV-I 0 W/m 10,3 km/h (2 Bft)
25.02.2014 03:54 5,8 C 3,9 C 85 % 1009,5 hPa 0,0 l/m 0 min 0 min 0,0 UV-I 0 W/m 10,3 km/h (2 Bft)
25.02.2014 03:56 5,8 C 3,9 C 85 % 1009,5 hPa 0,0 l/m 0 min 0 min 0,0 UV-I 0 W/m 10,3 km/h (2 Bft)
25.02.2014 03:58 5,8 C 3,9 C 85 % 1009,4 hPa 0,0 l/m 0 min 0 min 0,0 UV-I 0 W/m 10,3 km/h (2 Bft)
25.02.2014 04:00 5,8 C 3,9 C 85 % 1009,4 hPa 0,0 l/m 0 min 0 min 0,0 UV-I 0 W/m 15,4 km/h (3 Bft)
25.02.2014 04:02 5,8 C 3,9 C 85 % 1009,4 hPa 0,0 l/m 0 min 0 min 0,0 UV-I 0 W/m 5,1 km/h (1 Bft)
25.02.2014 04:04 5,8 C 3,9 C 85 % 1009,3 hPa 0,0 l/m 0 min 0 min 0,0 UV-I 0 W/m 12,9 km/h (3 Bft)
25.02.2014 04:06 5,8 C 3,9 C 85 % 1009,4 hPa 0,0 l/m 0 min 0 min 0,0 UV-I 0 W/m 7,7 km/h (2 Bft)
25.02.2014 04:08 5,8 C 3,9 C 85 % 1009,4 hPa 0,0 l/m 0 min 0 min 0,0 UV-I 0 W/m 7,7 km/h (2 Bft)
25.02.2014 04:10 5,8 C 3,9 C 85 % 1009,4 hPa 0,0 l/m 0 min 0 min 0,0 UV-I 0 W/m 12,9 km/h (3 Bft)
25.02.2014 04:12 5,7 C 3,9 C 85 % 1009,3 hPa 0,0 l/m 0 min 0 min 0,0 UV-I 0 W/m 10,3 km/h (2 Bft)
25.02.2014 04:14 5,7 C 3,9 C 85 % 1009,4 hPa 0,0 l/m 0 min 0 min 0,0 UV-I 0 W/m 7,7 km/h (2 Bft)
25.02.2014 04:16 5,7 C 3,9 C 85 % 1009,3 hPa 0,0 l/m 0 min 0 min 0,0 UV-I 0 W/m 7,7 km/h (2 Bft)
25.02.2014 04:18 5,7 C 3,9 C 86 % 1009,3 hPa 0,0 l/m 0 min 0 min 0,0 UV-I 0 W/m 0,0 km/h (0 Bft)
25.02.2014 04:20 5,7 C 3,9 C 86 % 1009,3 hPa 0,0 l/m 0 min 0 min 0,0 UV-I 0 W/m 7,7 km/h (2 Bft)
25.02.2014 04:22 5,7 C 3,9 C 85 % 1009,3 hPa 0,0 l/m 0 min 0 min 0,0 UV-I 0 W/m 12,9 km/h (3 Bft)
25.02.2014 04:24 5,7 C 3,9 C 86 % 1009,3 hPa 0,0 l/m 0 min 0 min 0,0 UV-I 0 W/m 10,3 km/h (2 Bft)
25.02.2014 04:26 5,6 C 3,9 C 86 % 1009,3 hPa 0,0 l/m 0 min 0 min 0,0 UV-I 0 W/m 5,1 km/h (1 Bft)
25.02.2014 04:28 5,6 C 3,9 C 86 % 1009,3 hPa 0,0 l/m 0 min 0 min 0,0 UV-I 0 W/m 2,6 km/h (1 Bft)
25.02.2014 04:30 5,6 C 3,9 C 86 % 1009,3 hPa 0,0 l/m 0 min 0 min 0,0 UV-I 0 W/m 0,0 km/h (0 Bft)
25.02.2014 04:32 5,6 C 3,9 C 86 % 1009,2 hPa 0,0 l/m 0 min 0 min 0,0 UV-I 0 W/m 7,7 km/h (2 Bft)
25.02.2014 04:34 5,6 C 3,9 C 86 % 1009,3 hPa 0,0 l/m 0 min 0 min 0,0 UV-I 0 W/m 0,0 km/h (0 Bft)
25.02.2014 04:36 5,5 C 3,9 C 86 % 1009,2 hPa 0,0 l/m 0 min 0 min 0,0 UV-I 0 W/m 0,0 km/h (0 Bft)
25.02.2014 04:38 5,4 C 3,9 C 86 % 1009,2 hPa 0,0 l/m 0 min 0 min 0,0 UV-I 0 W/m 5,1 km/h (1 Bft)
25.02.2014 04:40 5,4 C 3,9 C 86 % 1009,2 hPa 0,0 l/m 0 min 0 min 0,0 UV-I 0 W/m 5,1 km/h (1 Bft)
25.02.2014 04:42 5,4 C 3,9 C 86 % 1009,2 hPa 0,0 l/m 0 min 0 min 0,0 UV-I 0 W/m 5,1 km/h (1 Bft)
25.02.2014 04:44 5,4 C 3,3 C 86 % 1009,2 hPa 0,0 l/m 0 min 0 min 0,0 UV-I 0 W/m 5,1 km/h (1 Bft)
25.02.2014 04:46 5,4 C 3,3 C 86 % 1009,2 hPa 0,0 l/m 0 min 0 min 0,0 UV-I 0 W/m 5,1 km/h (1 Bft)
25.02.2014 04:48 5,4 C 3,3 C 86 % 1009,2 hPa 0,0 l/m 0 min 0 min 0,0 UV-I 0 W/m 7,7 km/h (2 Bft)
25.02.2014 04:50 5,4 C 3,9 C 86 % 1009,2 hPa 0,0 l/m 0 min 0 min 0,0 UV-I 0 W/m 10,3 km/h (2 Bft)
25.02.2014 04:52 5,4 C 3,9 C 86 % 1009,2 hPa 0,0 l/m 0 min 0 min 0,0 UV-I 0 W/m 0,0 km/h (0 Bft)
25.02.2014 04:54 5,4 C 3,9 C 86 % 1009,2 hPa 0,0 l/m 0 min 0 min 0,0 UV-I 0 W/m 2,6 km/h (1 Bft)
25.02.2014 04:56 5,4 C 3,9 C 86 % 1009,2 hPa 0,0 l/m 0 min 0 min 0,0 UV-I 0 W/m 12,9 km/h (3 Bft)
25.02.2014 04:58 5,4 C 3,9 C 87 % 1009,3 hPa 0,0 l/m 0 min 0 min 0,0 UV-I 0 W/m 10,3 km/h (2 Bft)
25.02.2014 05:00 5,4 C 3,9 C 87 % 1009,2 hPa 0,0 l/m 0 min 0 min 0,0 UV-I 0 W/m 7,7 km/h (2 Bft)
25.02.2014 05:02 5,4 C 3,9 C 87 % 1009,2 hPa 0,0 l/m 0 min 0 min 0,0 UV-I 0 W/m 7,7 km/h (2 Bft)
25.02.2014 05:04 5,5 C 3,9 C 86 % 1009,1 hPa 0,0 l/m 0 min 0 min 0,0 UV-I 0 W/m 10,3 km/h (2 Bft)
25.02.2014 05:06 5,5 C 3,9 C 86 % 1009,1 hPa 0,0 l/m 0 min 0 min 0,0 UV-I 0 W/m 10,3 km/h (2 Bft)
25.02.2014 05:08 5,5 C 3,9 C 87 % 1009,1 hPa 0,0 l/m 0 min 0 min 0,0 UV-I 0 W/m 5,1 km/h (1 Bft)
25.02.2014 05:10 5,5 C 3,9 C 87 % 1009,1 hPa 0,0 l/m 0 min 0 min 0,0 UV-I 0 W/m 10,3 km/h (2 Bft)
25.02.2014 05:12 5,5 C 3,9 C 87 % 1009,1 hPa 0,0 l/m 0 min 0 min 0,0 UV-I 0 W/m 12,9 km/h (3 Bft)
25.02.2014 05:14 5,6 C 3,9 C 87 % 1009,1 hPa 0,0 l/m 0 min 0 min 0,0 UV-I 0 W/m 10,3 km/h (2 Bft)
25.02.2014 05:16 5,6 C 3,9 C 86 % 1009,1 hPa 0,0 l/m 0 min 0 min 0,0 UV-I 0 W/m 10,3 km/h (2 Bft)
25.02.2014 05:18 5,6 C 3,9 C 86 % 1009,1 hPa 0,0 l/m 0 min 0 min 0,0 UV-I 0 W/m 10,3 km/h (2 Bft)
25.02.2014 05:20 5,6 C 3,9 C 86 % 1009,1 hPa 0,0 l/m 0 min 0 min 0,0 UV-I 0 W/m 10,3 km/h (2 Bft)
25.02.2014 05:22 5,6 C 3,9 C 86 % 1009,1 hPa 0,0 l/m 0 min 0 min 0,0 UV-I 0 W/m 5,1 km/h (1 Bft)
25.02.2014 05:24 5,6 C 3,9 C 86 % 1009,1 hPa 0,0 l/m 0 min 0 min 0,0 UV-I 0 W/m 15,4 km/h (3 Bft)
25.02.2014 05:26 5,6 C 3,9 C 86 % 1009,1 hPa 0,0 l/m 0 min 0 min 0,0 UV-I 0 W/m 15,4 km/h (3 Bft)
25.02.2014 05:28 5,6 C 3,9 C 86 % 1009,1 hPa 0,0 l/m 0 min 0 min 0,0 UV-I 0 W/m 10,3 km/h (2 Bft)
25.02.2014 05:30 5,6 C 3,9 C 86 % 1009,1 hPa 0,0 l/m 0 min 0 min 0,0 UV-I 0 W/m 10,3 km/h (2 Bft)
25.02.2014 05:32 5,6 C 3,9 C 86 % 1009,0 hPa 0,0 l/m 0 min 0 min 0,0 UV-I 0 W/m 12,9 km/h (3 Bft)
25.02.2014 05:34 5,6 C 3,9 C 86 % 1009,0 hPa 0,0 l/m 0 min 0 min 0,0 UV-I 0 W/m 12,9 km/h (3 Bft)
25.02.2014 05:36 5,6 C 3,9 C 86 % 1009,1 hPa 0,0 l/m 0 min 0 min 0,0 UV-I 0 W/m 7,7 km/h (2 Bft)
25.02.2014 05:38 5,6 C 3,9 C 86 % 1009,0 hPa 0,0 l/m 0 min 0 min 0,0 UV-I 0 W/m 10,3 km/h (2 Bft)
25.02.2014 05:40 5,6 C 3,9 C 86 % 1009,1 hPa 0,0 l/m 0 min 0 min 0,0 UV-I 0 W/m 10,3 km/h (2 Bft)
25.02.2014 05:42 5,6 C 3,9 C 86 % 1009,1 hPa 0,0 l/m 0 min 0 min 0,0 UV-I 0 W/m 15,4 km/h (3 Bft)
25.02.2014 05:44 5,6 C 3,9 C 86 % 1009,1 hPa 0,0 l/m 0 min 0 min 0,0 UV-I 0 W/m 7,7 km/h (2 Bft)
25.02.2014 05:46 5,6 C 3,9 C 86 % 1009,1 hPa 0,0 l/m 0 min 0 min 0,0 UV-I 0 W/m 12,9 km/h (3 Bft)
25.02.2014 05:48 5,6 C 3,9 C 86 % 1009,1 hPa 0,0 l/m 0 min 0 min 0,0 UV-I 0 W/m 7,7 km/h (2 Bft)
25.02.2014 05:50 5,6 C 3,9 C 86 % 1009,0 hPa 0,0 l/m 0 min 0 min 0,0 UV-I 0 W/m 12,9 km/h (3 Bft)
25.02.2014 05:52 5,6 C 3,9 C 86 % 1009,0 hPa 0,0 l/m 0 min 0 min 0,0 UV-I 0 W/m 10,3 km/h (2 Bft)
25.02.2014 05:54 5,6 C 3,9 C 86 % 1009,0 hPa 0,0 l/m 0 min 0 min 0,0 UV-I 0 W/m 12,9 km/h (3 Bft)
25.02.2014 05:56 5,5 C 3,9 C 86 % 1009,0 hPa 0,0 l/m 0 min 0 min 0,0 UV-I 0 W/m 10,3 km/h (2 Bft)
25.02.2014 05:58 5,5 C 3,9 C 87 % 1009,0 hPa 0,0 l/m 0 min 0 min 0,0 UV-I 0 W/m 12,9 km/h (3 Bft)
25.02.2014 06:00 5,5 C 3,9 C 87 % 1009,1 hPa 0,0 l/m 0 min 0 min 0,0 UV-I 0 W/m 10,3 km/h (2 Bft)
25.02.2014 06:02 5,5 C 3,9 C 87 % 1009,0 hPa 0,0 l/m 0 min 0 min 0,0 UV-I 0 W/m 15,4 km/h (3 Bft)
25.02.2014 06:04 5,5 C 3,9 C 87 % 1009,0 hPa 0,0 l/m 0 min 0 min 0,0 UV-I 0 W/m 10,3 km/h (2 Bft)
25.02.2014 06:06 5,5 C 3,9 C 87 % 1009,1 hPa 0,0 l/m 0 min 0 min 0,0 UV-I 0 W/m 12,9 km/h (3 Bft)
25.02.2014 06:08 5,4 C 3,9 C 87 % 1009,0 hPa 0,0 l/m 0 min 0 min 0,0 UV-I 0 W/m 15,4 km/h (3 Bft)
25.02.2014 06:10 5,4 C 3,9 C 87 % 1009,0 hPa 0,0 l/m 0 min 0 min 0,0 UV-I 0 W/m 12,9 km/h (3 Bft)
25.02.2014 06:12 5,4 C 3,9 C 87 % 1009,0 hPa 0,0 l/m 0 min 0 min 0,0 UV-I 0 W/m 10,3 km/h (2 Bft)
25.02.2014 06:14 5,4 C 3,9 C 87 % 1008,9 hPa 0,0 l/m 0 min 0 min 0,0 UV-I 0 W/m 15,4 km/h (3 Bft)
25.02.2014 06:16 5,4 C 3,9 C 87 % 1009,0 hPa 0,0 l/m 0 min 0 min 0,0 UV-I 0 W/m 15,4 km/h (3 Bft)
25.02.2014 06:18 5,4 C 3,9 C 86 % 1008,9 hPa 0,0 l/m 0 min 0 min 0,0 UV-I 0 W/m 12,9 km/h (3 Bft)
25.02.2014 06:20 5,4 C 3,9 C 86 % 1008,9 hPa 0,0 l/m 0 min 0 min 0,0 UV-I 0 W/m 15,4 km/h (3 Bft)
25.02.2014 06:22 5,4 C 3,9 C 87 % 1008,9 hPa 0,0 l/m 0 min 0 min 0,0 UV-I 0 W/m 12,9 km/h (3 Bft)
25.02.2014 06:24 5,4 C 3,9 C 87 % 1008,9 hPa 0,0 l/m 0 min 0 min 0,0 UV-I 0 W/m 10,3 km/h (2 Bft)
25.02.2014 06:26 5,4 C 3,9 C 86 % 1008,9 hPa 0,0 l/m 0 min 0 min 0,0 UV-I 0 W/m 10,3 km/h (2 Bft)
25.02.2014 06:28 5,4 C 3,9 C 87 % 1008,9 hPa 0,0 l/m 0 min 0 min 0,0 UV-I 0 W/m 12,9 km/h (3 Bft)
25.02.2014 06:30 5,4 C 3,9 C 87 % 1008,9 hPa 0,0 l/m 0 min 0 min 0,0 UV-I 0 W/m 15,4 km/h (3 Bft)
25.02.2014 06:32 5,4 C 3,9 C 87 % 1008,9 hPa 0,0 l/m 0 min 0 min 0,0 UV-I 0 W/m 7,7 km/h (2 Bft)
25.02.2014 06:34 5,4 C 3,9 C 87 % 1008,9 hPa 0,0 l/m 0 min 0 min 0,0 UV-I 0 W/m 12,9 km/h (3 Bft)
25.02.2014 06:36 5,4 C 3,9 C 87 % 1008,9 hPa 0,0 l/m 0 min 0 min 0,0 UV-I 0 W/m 15,4 km/h (3 Bft)
25.02.2014 06:38 5,4 C 3,9 C 87 % 1008,9 hPa 0,0 l/m 0 min 0 min 0,0 UV-I 0 W/m 10,3 km/h (2 Bft)
25.02.2014 06:40 5,4 C 3,9 C 87 % 1008,9 hPa 0,0 l/m 0 min 0 min 0,0 UV-I 0 W/m 12,9 km/h (3 Bft)
25.02.2014 06:42 5,4 C 3,9 C 87 % 1009,0 hPa 0,0 l/m 0 min 0 min 0,0 UV-I 0 W/m 10,3 km/h (2 Bft)
25.02.2014 06:44 5,4 C 3,3 C 87 % 1008,9 hPa 0,0 l/m 0 min 0 min 0,0 UV-I 0 W/m 10,3 km/h (2 Bft)
25.02.2014 06:46 5,4 C 3,3 C 87 % 1008,9 hPa 0,0 l/m 0 min 0 min 0,0 UV-I 0 W/m 12,9 km/h (3 Bft)
25.02.2014 06:48 5,4 C 3,3 C 87 % 1008,9 hPa 0,0 l/m 0 min 0 min 0,0 UV-I 0 W/m 10,3 km/h (2 Bft)
25.02.2014 06:50 5,3 C 3,3 C 87 % 1008,9 hPa 0,0 l/m 0 min 0 min 0,0 UV-I 0 W/m 10,3 km/h (2 Bft)
25.02.2014 06:52 5,3 C 3,3 C 87 % 1008,9 hPa 0,0 l/m 0 min 0 min 0,0 UV-I 0 W/m 12,9 km/h (3 Bft)
25.02.2014 06:54 5,3 C 3,3 C 87 % 1008,9 hPa 0,0 l/m 0 min 0 min 0,0 UV-I 0 W/m 10,3 km/h (2 Bft)
25.02.2014 06:56 5,3 C 3,3 C 87 % 1008,8 hPa 0,0 l/m 0 min 0 min 0,0 UV-I 0 W/m 7,7 km/h (2 Bft)
25.02.2014 06:58 5,3 C 3,3 C 87 % 1008,8 hPa 0,0 l/m 0 min 0 min 0,0 UV-I 0 W/m 7,7 km/h (2 Bft)
25.02.2014 07:00 5,3 C 3,3 C 87 % 1008,8 hPa 0,0 l/m 0 min 0 min 0,0 UV-I 0 W/m 7,7 km/h (2 Bft)
25.02.2014 07:02 5,3 C 3,3 C 87 % 1008,8 hPa 0,0 l/m 0 min 0 min 0,0 UV-I 0 W/m 10,3 km/h (2 Bft)
25.02.2014 07:04 5,3 C 3,3 C 87 % 1008,8 hPa 0,0 l/m 0 min 0 min 0,0 UV-I 0 W/m 10,3 km/h (2 Bft)
25.02.2014 07:06 5,3 C 3,3 C 87 % 1008,8 hPa 0,0 l/m 0 min 0 min 0,0 UV-I 0 W/m 12,9 km/h (3 Bft)
25.02.2014 07:08 5,3 C 3,3 C 87 % 1008,8 hPa 0,0 l/m 0 min 0 min 0,0 UV-I 0 W/m 10,3 km/h (2 Bft)
25.02.2014 07:10 5,3 C 3,3 C 87 % 1008,8 hPa 0,0 l/m 0 min 0 min 0,0 UV-I 0 W/m 12,9 km/h (3 Bft)
25.02.2014 07:12 5,3 C 3,3 C 87 % 1008,8 hPa 0,0 l/m 0 min 0 min 0,0 UV-I 0 W/m 15,4 km/h (3 Bft)
25.02.2014 07:14 5,3 C 3,3 C 87 % 1008,8 hPa 0,0 l/m 0 min 0 min 0,0 UV-I 0 W/m 12,9 km/h (3 Bft)
25.02.2014 07:16 5,3 C 3,9 C 87 % 1008,8 hPa 0,0 l/m 0 min 0 min 0,0 UV-I 0 W/m 18,0 km/h (3 Bft)
25.02.2014 07:18 5,4 C 3,9 C 87 % 1008,8 hPa 0,0 l/m 0 min 0 min 0,0 UV-I 0 W/m 12,9 km/h (3 Bft)
25.02.2014 07:20 5,3 C 3,9 C 87 % 1008,8 hPa 0,0 l/m 0 min 0 min 0,0 UV-I 0 W/m 15,4 km/h (3 Bft)
25.02.2014 07:22 5,3 C 3,9 C 87 % 1008,8 hPa 0,0 l/m 0 min 0 min 0,0 UV-I 0 W/m 7,7 km/h (2 Bft)
25.02.2014 07:24 5,3 C 3,9 C 87 % 1008,8 hPa 0,0 l/m 0 min 0 min 0,0 UV-I 0 W/m 10,3 km/h (2 Bft)
25.02.2014 07:26 5,3 C 3,3 C 87 % 1008,8 hPa 0,0 l/m 0 min 0 min 0,0 UV-I 0 W/m 10,3 km/h (2 Bft)
25.02.2014 07:28 5,3 C 3,3 C 87 % 1008,8 hPa 0,0 l/m 0 min 0 min 0,0 UV-I 0 W/m 18,0 km/h (3 Bft)
25.02.2014 07:30 5,3 C 3,3 C 87 % 1008,8 hPa 0,0 l/m 0 min 0 min 0,0 UV-I 5 W/m 10,3 km/h (2 Bft)
25.02.2014 07:32 5,3 C 3,3 C 87 % 1008,8 hPa 0,0 l/m 0 min 0 min 0,0 UV-I 5 W/m 15,4 km/h (3 Bft)
25.02.2014 07:34 5,3 C 3,3 C 87 % 1008,8 hPa 0,0 l/m 0 min 0 min 0,0 UV-I 7 W/m 15,4 km/h (3 Bft)
25.02.2014 07:36 5,3 C 3,9 C 87 % 1008,8 hPa 0,0 l/m 0 min 0 min 0,0 UV-I 9 W/m 10,3 km/h (2 Bft)
25.02.2014 07:38 5,3 C 3,9 C 87 % 1008,9 hPa 0,0 l/m 0 min 0 min 0,0 UV-I 9 W/m 7,7 km/h (2 Bft)
25.02.2014 07:40 5,3 C 3,9 C 88 % 1009,0 hPa 0,0 l/m 0 min 0 min 0,0 UV-I 11 W/m 10,3 km/h (2 Bft)
25.02.2014 07:42 5,3 C 3,9 C 88 % 1009,0 hPa 0,0 l/m 0 min 0 min 0,0 UV-I 11 W/m 12,9 km/h (3 Bft)
25.02.2014 07:44 5,3 C 3,9 C 88 % 1009,0 hPa 0,0 l/m 0 min 0 min 0,0 UV-I 12 W/m 15,4 km/h (3 Bft)
25.02.2014 07:46 5,4 C 3,9 C 88 % 1009,0 hPa 0,0 l/m 0 min 0 min 0,0 UV-I 14 W/m 15,4 km/h (3 Bft)
25.02.2014 07:48 5,4 C 3,9 C 87 % 1009,0 hPa 0,0 l/m 0 min 0 min 0,0 UV-I 16 W/m 15,4 km/h (3 Bft)
25.02.2014 07:50 5,4 C 3,9 C 87 % 1008,9 hPa 0,0 l/m 0 min 0 min 0,0 UV-I 18 W/m 12,9 km/h (3 Bft)
25.02.2014 07:52 5,4 C 3,9 C 87 % 1008,9 hPa 0,0 l/m 0 min 0 min 0,0 UV-I 19 W/m 18,0 km/h (3 Bft)
25.02.2014 07:54 5,4 C 3,9 C 87 % 1008,9 hPa 0,0 l/m 0 min 0 min 0,0 UV-I 21 W/m 20,6 km/h (4 Bft)
25.02.2014 07:56 5,4 C 3,9 C 87 % 1008,9 hPa 0,0 l/m 0 min 0 min 0,0 UV-I 23 W/m 12,9 km/h (3 Bft)
25.02.2014 07:58 5,4 C 3,9 C 87 % 1008,9 hPa 0,0 l/m 0 min 0 min 0,0 UV-I 25 W/m 18,0 km/h (3 Bft)
25.02.2014 08:00 5,5 C 3,9 C 87 % 1008,9 hPa 0,0 l/m 0 min 0 min 0,0 UV-I 26 W/m 7,7 km/h (2 Bft)
25.02.2014 08:02 5,5 C 3,9 C 87 % 1008,9 hPa 0,0 l/m 0 min 0 min 0,0 UV-I 28 W/m 10,3 km/h (2 Bft)
25.02.2014 08:04 5,5 C 3,9 C 87 % 1008,9 hPa 0,0 l/m 0 min 0 min 0,0 UV-I 30 W/m 15,4 km/h (3 Bft)
25.02.2014 08:06 5,6 C 3,9 C 87 % 1008,9 hPa 0,0 l/m 0 min 0 min 0,0 UV-I 33 W/m 7,7 km/h (2 Bft)
25.02.2014 08:08 5,6 C 3,9 C 87 % 1008,9 hPa 0,0 l/m 0 min 0 min 0,0 UV-I 35 W/m 10,3 km/h (2 Bft)
25.02.2014 08:10 5,6 C 3,9 C 87 % 1008,9 hPa 0,0 l/m 0 min 0 min 0,0 UV-I 39 W/m 10,3 km/h (2 Bft)
25.02.2014 08:12 5,6 C 3,9 C 87 % 1008,8 hPa 0,0 l/m 0 min 0 min 0,0 UV-I 44 W/m 12,9 km/h (3 Bft)
25.02.2014 08:14 5,7 C 3,9 C 87 % 1008,8 hPa 0,0 l/m 0 min 0 min 0,0 UV-I 47 W/m 10,3 km/h (2 Bft)
25.02.2014 08:16 5,7 C 3,9 C 87 % 1008,9 hPa 0,0 l/m 0 min 0 min 0,0 UV-I 51 W/m 15,4 km/h (3 Bft)
25.02.2014 08:18 5,7 C 4,4 C 87 % 1008,8 hPa 0,0 l/m 0 min 0 min 0,0 UV-I 56 W/m 10,3 km/h (2 Bft)
25.02.2014 08:20 5,8 C 4,4 C 87 % 1008,9 hPa 0,0 l/m 0 min 0 min 0,0 UV-I 58 W/m 15,4 km/h (3 Bft)
25.02.2014 08:22 5,8 C 4,4 C 87 % 1008,9 hPa 0,0 l/m 0 min 0 min 0,0 UV-I 60 W/m 10,3 km/h (2 Bft)
25.02.2014 08:24 5,9 C 4,4 C 87 % 1008,9 hPa 0,0 l/m 0 min 0 min 0,0 UV-I 63 W/m 7,7 km/h (2 Bft)
25.02.2014 08:26 5,9 C 4,4 C 87 % 1008,9 hPa 0,0 l/m 0 min 0 min 0,0 UV-I 63 W/m 10,3 km/h (2 Bft)
25.02.2014 08:28 6,0 C 4,4 C 87 % 1008,9 hPa 0,0 l/m 0 min 0 min 0,0 UV-I 65 W/m 15,4 km/h (3 Bft)
25.02.2014 08:30 6,1 C 4,4 C 86 % 1009,0 hPa 0,0 l/m 0 min 0 min 0,0 UV-I 67 W/m 5,1 km/h (1 Bft)
25.02.2014 08:32 6,2 C 5,0 C 86 % 1008,9 hPa 0,0 l/m 0 min 0 min 0,0 UV-I 69 W/m 12,9 km/h (3 Bft)
25.02.2014 08:34 6,3 C 5,0 C 86 % 1008,9 hPa 0,0 l/m 0 min 0 min 0,0 UV-I 86 W/m 15,4 km/h (3 Bft)
25.02.2014 08:36 6,3 C 5,0 C 86 % 1008,8 hPa 0,0 l/m 2 min 0 min 0,0 UV-I 98 W/m 12,9 km/h (3 Bft)
25.02.2014 08:38 6,4 C 5,0 C 86 % 1008,8 hPa 0,0 l/m 2 min 0 min 0,0 UV-I 105 W/m 10,3 km/h (2 Bft)
25.02.2014 08:40 6,4 C 5,0 C 86 % 1008,9 hPa 0,0 l/m 2 min 0 min 0,0 UV-I 111 W/m 18,0 km/h (3 Bft)
25.02.2014 08:42 6,5 C 5,0 C 86 % 1008,9 hPa 0,0 l/m 2 min 0 min 0,0 UV-I 116 W/m 10,3 km/h (2 Bft)
25.02.2014 08:44 6,6 C 5,0 C 85 % 1008,8 hPa 0,0 l/m 2 min 0 min 0,0 UV-I 116 W/m 18,0 km/h (3 Bft)
25.02.2014 08:46 6,7 C 5,0 C 85 % 1008,8 hPa 0,0 l/m 2 min 0 min 0,0 UV-I 113 W/m 18,0 km/h (3 Bft)
25.02.2014 08:48 6,7 C 5,6 C 85 % 1008,8 hPa 0,0 l/m 0 min 0 min 0,0 UV-I 98 W/m 18,0 km/h (3 Bft)
25.02.2014 08:50 6,8 C 5,6 C 85 % 1008,9 hPa 0,0 l/m 0 min 0 min 0,0 UV-I 93 W/m 12,9 km/h (3 Bft)
25.02.2014 08:52 6,8 C 5,6 C 84 % 1008,8 hPa 0,0 l/m 0 min 0 min 0,0 UV-I 90 W/m 18,0 km/h (3 Bft)
25.02.2014 08:54 6,9 C 5,6 C 84 % 1008,9 hPa 0,0 l/m 0 min 0 min 0,0 UV-I 88 W/m 12,9 km/h (3 Bft)
25.02.2014 08:56 6,9 C 5,6 C 84 % 1008,9 hPa 0,0 l/m 0 min 0 min 0,0 UV-I 97 W/m 23,2 km/h (4 Bft)
25.02.2014 08:58 7,0 C 5,6 C 84 % 1008,9 hPa 0,0 l/m 0 min 0 min 0,0 UV-I 109 W/m 18,0 km/h (3 Bft)
25.02.2014 09:00 7,0 C 6,1 C 84 % 1008,8 hPa 0,0 l/m 2 min 0 min 0,0 UV-I 120 W/m 12,9 km/h (3 Bft)
25.02.2014 09:02 7,1 C 6,1 C 84 % 1008,9 hPa 0,0 l/m 2 min 0 min 0,0 UV-I 128 W/m 15,4 km/h (3 Bft)
25.02.2014 09:04 7,2 C 6,1 C 84 % 1008,8 hPa 0,0 l/m 2 min 0 min 0,0 UV-I 125 W/m 12,9 km/h (3 Bft)
25.02.2014 09:06 7,3 C 6,1 C 84 % 1008,8 hPa 0,0 l/m 0 min 0 min 0,0 UV-I 113 W/m 15,4 km/h (3 Bft)
25.02.2014 09:08 7,3 C 6,1 C 84 % 1008,8 hPa 0,0 l/m 0 min 0 min 0,0 UV-I 84 W/m 18,0 km/h (3 Bft)
25.02.2014 09:10 7,4 C 6,7 C 83 % 1008,9 hPa 0,0 l/m 0 min 0 min 0,0 UV-I 81 W/m 12,9 km/h (3 Bft)
25.02.2014 09:12 7,4 C 6,7 C 83 % 1008,8 hPa 0,0 l/m 0 min 0 min 0,0 UV-I 77 W/m 18,0 km/h (3 Bft)
25.02.2014 09:14 7,5 C 6,7 C 83 % 1008,8 hPa 0,0 l/m 0 min 0 min 0,0 UV-I 77 W/m 20,6 km/h (4 Bft)
25.02.2014 09:16 7,5 C 6,7 C 83 % 1008,8 hPa 0,0 l/m 0 min 0 min 0,0 UV-I 79 W/m 18,0 km/h (3 Bft)
25.02.2014 09:18 7,6 C 6,7 C 83 % 1008,8 hPa 0,0 l/m 0 min 0 min 0,0 UV-I 76 W/m 15,4 km/h (3 Bft)
25.02.2014 09:20 7,6 C 6,7 C 83 % 1008,8 hPa 0,0 l/m 0 min 0 min 0,0 UV-I 72 W/m 10,3 km/h (2 Bft)
25.02.2014 09:22 7,6 C 6,7 C 83 % 1008,8 hPa 0,0 l/m 0 min 0 min 0,0 UV-I 72 W/m 15,4 km/h (3 Bft)
25.02.2014 09:24 7,6 C 6,7 C 83 % 1008,8 hPa 0,0 l/m 0 min 0 min 0,0 UV-I 77 W/m 18,0 km/h (3 Bft)
25.02.2014 09:26 7,6 C 6,7 C 82 % 1008,8 hPa 0,0 l/m 0 min 0 min 0,0 UV-I 81 W/m 25,7 km/h (4 Bft)
25.02.2014 09:28 7,7 C 6,7 C 82 % 1008,7 hPa 0,0 l/m 0 min 0 min 0,0 UV-I 121 W/m 15,4 km/h (3 Bft)
25.02.2014 09:30 7,7 C 6,7 C 82 % 1008,7 hPa 0,0 l/m 0 min 0 min 0,0 UV-I 144 W/m 7,7 km/h (2 Bft)
25.02.2014 09:32 7,7 C 6,7 C 82 % 1008,7 hPa 0,0 l/m 0 min 0 min 0,0 UV-I 86 W/m 12,9 km/h (3 Bft)
25.02.2014 09:34 7,8 C 6,7 C 82 % 1008,7 hPa 0,0 l/m 0 min 0 min 0,0 UV-I 97 W/m 15,4 km/h (3 Bft)
25.02.2014 09:36 7,8 C 6,7 C 82 % 1008,7 hPa 0,0 l/m 0 min 0 min 0,0 UV-I 102 W/m 7,7 km/h (2 Bft)
25.02.2014 09:38 7,9 C 6,7 C 82 % 1008,7 hPa 0,0 l/m 0 min 0 min 0,0 UV-I 102 W/m 12,9 km/h (3 Bft)
25.02.2014 09:40 7,9 C 6,7 C 82 % 1008,7 hPa 0,0 l/m 0 min 0 min 0,0 UV-I 102 W/m 18,0 km/h (3 Bft)
25.02.2014 09:42 7,9 C 6,7 C 82 % 1008,7 hPa 0,0 l/m 0 min 0 min 0,0 UV-I 100 W/m 10,3 km/h (2 Bft)
25.02.2014 09:44 7,9 C 6,7 C 82 % 1008,7 hPa 0,0 l/m 0 min 0 min 0,0 UV-I 121 W/m 18,0 km/h (3 Bft)
25.02.2014 09:46 8,0 C 6,7 C 82 % 1008,7 hPa 0,0 l/m 0 min 0 min 0,0 UV-I 102 W/m 7,7 km/h (2 Bft)
25.02.2014 09:48 8,1 C 7,2 C 81 % 1008,7 hPa 0,0 l/m 0 min 0 min 0,0 UV-I 107 W/m 7,7 km/h (2 Bft)
25.02.2014 09:50 8,1 C 7,2 C 81 % 1008,6 hPa 0,0 l/m 0 min 0 min 0,0 UV-I 113 W/m 15,4 km/h (3 Bft)
25.02.2014 09:52 8,2 C 7,2 C 81 % 1008,6 hPa 0,0 l/m 0 min 0 min 0,0 UV-I 128 W/m 10,3 km/h (2 Bft)
25.02.2014 09:54 8,2 C 7,2 C 81 % 1008,6 hPa 0,0 l/m 2 min 0 min 0,0 UV-I 239 W/m 15,4 km/h (3 Bft)
25.02.2014 09:56 8,3 C 7,2 C 81 % 1008,6 hPa 0,0 l/m 2 min 0 min 0,0 UV-I 185 W/m 18,0 km/h (3 Bft)
25.02.2014 09:58 8,4 C 7,2 C 81 % 1008,7 hPa 0,0 l/m 0 min 0 min 0,0 UV-I 120 W/m 15,4 km/h (3 Bft)
25.02.2014 10:00 8,5 C 7,2 C 81 % 1008,5 hPa 0,0 l/m 0 min 0 min 0,0 UV-I 107 W/m 10,3 km/h (2 Bft)
25.02.2014 10:02 8,5 C 7,8 C 81 % 1008,5 hPa 0,0 l/m 0 min 0 min 0,0 UV-I 104 W/m 15,4 km/h (3 Bft)
25.02.2014 10:04 8,6 C 7,8 C 81 % 1008,5 hPa 0,0 l/m 0 min 0 min 0,0 UV-I 98 W/m 18,0 km/h (3 Bft)
25.02.2014 10:06 8,6 C 7,8 C 80 % 1008,4 hPa 0,0 l/m 0 min 0 min 0,0 UV-I 90 W/m 12,9 km/h (3 Bft)
25.02.2014 10:08 8,6 C 7,8 C 81 % 1008,4 hPa 0,0 l/m 0 min 0 min 0,0 UV-I 86 W/m 10,3 km/h (2 Bft)
25.02.2014 10:10 8,6 C 7,8 C 81 % 1008,4 hPa 0,0 l/m 0 min 0 min 0,0 UV-I 97 W/m 20,6 km/h (4 Bft)
25.02.2014 10:12 8,6 C 7,8 C 81 % 1008,4 hPa 0,0 l/m 0 min 0 min 0,0 UV-I 100 W/m 10,3 km/h (2 Bft)
25.02.2014 10:14 8,6 C 7,8 C 81 % 1008,5 hPa 0,0 l/m 0 min 0 min 0,0 UV-I 100 W/m 18,0 km/h (3 Bft)
25.02.2014 10:16 8,6 C 7,8 C 81 % 1008,5 hPa 0,0 l/m 0 min 0 min 0,0 UV-I 100 W/m 18,0 km/h (3 Bft)
25.02.2014 10:18 8,7 C 7,8 C 81 % 1008,4 hPa 0,0 l/m 0 min 0 min 0,0 UV-I 100 W/m 12,9 km/h (3 Bft)
25.02.2014 10:20 8,7 C 7,8 C 80 % 1008,4 hPa 0,0 l/m 0 min 0 min 0,0 UV-I 93 W/m 15,4 km/h (3 Bft)
25.02.2014 10:22 8,7 C 7,8 C 80 % 1008,4 hPa 0,0 l/m 0 min 0 min 0,0 UV-I 90 W/m 12,9 km/h (3 Bft)
25.02.2014 10:24 8,8 C 7,8 C 80 % 1008,5 hPa 0,0 l/m 0 min 0 min 0,0 UV-I 98 W/m 20,6 km/h (4 Bft)
25.02.2014 10:26 8,8 C 7,8 C 80 % 1008,4 hPa 0,0 l/m 0 min 0 min 0,0 UV-I 109 W/m 18,0 km/h (3 Bft)
25.02.2014 10:28 8,8 C 7,8 C 80 % 1008,5 hPa 0,0 l/m 0 min 0 min 0,0 UV-I 116 W/m 15,4 km/h (3 Bft)
25.02.2014 10:30 8,9 C 7,8 C 79 % 1008,5 hPa 0,0 l/m 0 min 0 min 0,0 UV-I 120 W/m 18,0 km/h (3 Bft)
25.02.2014 10:32 8,9 C 8,3 C 80 % 1008,5 hPa 0,0 l/m 0 min 0 min 0,0 UV-I 127 W/m 7,7 km/h (2 Bft)
25.02.2014 10:34 9,0 C 8,3 C 79 % 1008,4 hPa 0,0 l/m 0 min 0 min 0,0 UV-I 141 W/m 18,0 km/h (3 Bft)
25.02.2014 10:36 9,1 C 8,3 C 79 % 1008,4 hPa 0,0 l/m 0 min 0 min 0,0 UV-I 149 W/m 18,0 km/h (3 Bft)
25.02.2014 10:38 9,2 C 8,3 C 79 % 1008,5 hPa 0,0 l/m 0 min 0 min 0,0 UV-I 158 W/m 12,9 km/h (3 Bft)
25.02.2014 10:40 9,2 C 8,3 C 79 % 1008,4 hPa 0,0 l/m 0 min 0 min 0,0 UV-I 179 W/m 18,0 km/h (3 Bft)
25.02.2014 10:42 9,3 C 8,9 C 79 % 1008,5 hPa 0,0 l/m 0 min 0 min 0,0 UV-I 207 W/m 18,0 km/h (3 Bft)
25.02.2014 10:44 9,4 C 8,9 C 78 % 1008,5 hPa 0,0 l/m 2 min 0 min 0,0 UV-I 251 W/m 18,0 km/h (3 Bft)
25.02.2014 10:46 9,7 C 8,9 C 77 % 1008,4 hPa 0,0 l/m 0 min 0 min 0,0 UV-I 206 W/m 18,0 km/h (3 Bft)
25.02.2014 10:48 9,8 C 9,4 C 76 % 1008,4 hPa 0,0 l/m 0 min 0 min 0,0 UV-I 223 W/m 15,4 km/h (3 Bft)
25.02.2014 10:50 9,9 C 9,4 C 76 % 1008,3 hPa 0,0 l/m 2 min 0 min 0,0 UV-I 255 W/m 15,4 km/h (3 Bft)
25.02.2014 10:52 10,0 C 9,4 C 76 % 1008,3 hPa 0,0 l/m 0 min 0 min 0,0 UV-I 202 W/m 18,0 km/h (3 Bft)
25.02.2014 10:54 10,1 C 9,4 C 75 % 1008,3 hPa 0,0 l/m 0 min 0 min 0,0 UV-I 230 W/m 20,6 km/h (4 Bft)
25.02.2014 10:56 10,1 C 9,4 C 75 % 1008,3 hPa 0,0 l/m 0 min 0 min 0,0 UV-I 179 W/m 23,2 km/h (4 Bft)
25.02.2014 10:58 10,1 C 9,4 C 74 % 1008,2 hPa 0,0 l/m 0 min 0 min 0,0 UV-I 162 W/m 15,4 km/h (3 Bft)
25.02.2014 11:00 10,1 C 9,4 C 74 % 1008,3 hPa 0,0 l/m 0 min 0 min 0,0 UV-I 155 W/m 25,7 km/h (4 Bft)
25.02.2014 11:02 10,1 C 9,4 C 74 % 1008,3 hPa 0,0 l/m 0 min 0 min 0,0 UV-I 162 W/m 20,6 km/h (4 Bft)
25.02.2014 11:04 10,1 C 9,4 C 74 % 1008,3 hPa 0,0 l/m 0 min 0 min 0,0 UV-I 156 W/m 23,2 km/h (4 Bft)
25.02.2014 11:06 10,1 C 9,4 C 75 % 1008,2 hPa 0,0 l/m 0 min 0 min 0,0 UV-I 148 W/m 10,3 km/h (2 Bft)
25.02.2014 11:08 10,1 C 9,4 C 75 % 1008,2 hPa 0,0 l/m 0 min 0 min 0,0 UV-I 132 W/m 15,4 km/h (3 Bft)
25.02.2014 11:10 10,1 C 9,4 C 75 % 1008,2 hPa 0,0 l/m 0 min 0 min 0,0 UV-I 116 W/m 12,9 km/h (3 Bft)
25.02.2014 11:12 10,1 C 9,4 C 75 % 1008,2 hPa 0,0 l/m 0 min 0 min 0,0 UV-I 105 W/m 18,0 km/h (3 Bft)
25.02.2014 11:14 10,1 C 8,9 C 74 % 1008,3 hPa 0,0 l/m 0 min 0 min 0,0 UV-I 105 W/m 15,4 km/h (3 Bft)
25.02.2014 11:16 10,1 C 8,9 C 74 % 1008,2 hPa 0,0 l/m 0 min 0 min 0,0 UV-I 102 W/m 20,6 km/h (4 Bft)
25.02.2014 11:18 10,1 C 8,9 C 74 % 1008,2 hPa 0,0 l/m 0 min 0 min 0,0 UV-I 95 W/m 10,3 km/h (2 Bft)
25.02.2014 11:20 10,1 C 8,9 C 74 % 1008,2 hPa 0,0 l/m 0 min 0 min 0,0 UV-I 83 W/m 23,2 km/h (4 Bft)
25.02.2014 11:22 10,1 C 8,9 C 74 % 1008,2 hPa 0,0 l/m 0 min 0 min 0,0 UV-I 72 W/m 18,0 km/h (3 Bft)
25.02.2014 11:24 10,0 C 8,9 C 74 % 1008,2 hPa 0,0 l/m 0 min 0 min 0,0 UV-I 62 W/m 12,9 km/h (3 Bft)
25.02.2014 11:26 9,9 C 8,9 C 74 % 1008,2 hPa 0,0 l/m 0 min 0 min 0,0 UV-I 54 W/m 18,0 km/h (3 Bft)
25.02.2014 11:28 9,9 C 8,3 C 75 % 1008,4 hPa 0,0 l/m 0 min 0 min 0,0 UV-I 62 W/m 18,0 km/h (3 Bft)
25.02.2014 11:30 9,8 C 8,3 C 75 % 1008,4 hPa 0,0 l/m 0 min 0 min 0,0 UV-I 74 W/m 10,3 km/h (2 Bft)
25.02.2014 11:32 9,8 C 8,3 C 75 % 1008,5 hPa 0,0 l/m 0 min 0 min 0,0 UV-I 72 W/m 18,0 km/h (3 Bft)
25.02.2014 11:34 9,7 C 8,3 C 75 % 1008,5 hPa 0,0 l/m 0 min 0 min 0,0 UV-I 79 W/m 10,3 km/h (2 Bft)
25.02.2014 11:36 9,7 C 8,3 C 75 % 1008,5 hPa 0,0 l/m 0 min 0 min 0,0 UV-I 81 W/m 12,9 km/h (3 Bft)
25.02.2014 11:38 9,7 C 8,3 C 75 % 1008,6 hPa 0,0 l/m 0 min 0 min 0,0 UV-I 72 W/m 0,0 km/h (0 Bft)
25.02.2014 11:40 9,7 C 8,3 C 75 % 1008,5 hPa 0,0 l/m 0 min 0 min 0,0 UV-I 65 W/m 18,0 km/h (3 Bft)
25.02.2014 11:42 9,7 C 8,3 C 75 % 1008,5 hPa 0,0 l/m 0 min 0 min 0,0 UV-I 60 W/m 18,0 km/h (3 Bft)
25.02.2014 11:44 9,7 C 8,3 C 75 % 1008,5 hPa 0,0 l/m 0 min 0 min 0,0 UV-I 54 W/m 15,4 km/h (3 Bft)
25.02.2014 11:46 9,7 C 8,3 C 76 % 1008,5 hPa 0,0 l/m 0 min 0 min 0,0 UV-I 54 W/m 10,3 km/h (2 Bft)
25.02.2014 11:48 9,7 C 8,3 C 76 % 1008,6 hPa 0,0 l/m 0 min 0 min 0,0 UV-I 54 W/m 7,7 km/h (2 Bft)
25.02.2014 11:50 9,7 C 8,3 C 76 % 1008,5 hPa 0,0 l/m 0 min 0 min 0,0 UV-I 58 W/m 18,0 km/h (3 Bft)
25.02.2014 11:52 9,7 C 8,3 C 76 % 1008,5 hPa 0,0 l/m 0 min 0 min 0,0 UV-I 62 W/m 15,4 km/h (3 Bft)
25.02.2014 11:54 9,7 C 8,3 C 76 % 1008,5 hPa 0,0 l/m 0 min 0 min 0,0 UV-I 65 W/m 12,9 km/h (3 Bft)
25.02.2014 11:56 9,7 C 8,3 C 76 % 1008,5 hPa 0,0 l/m 0 min 0 min 0,0 UV-I 67 W/m 12,9 km/h (3 Bft)
25.02.2014 11:58 9,7 C 8,3 C 76 % 1008,5 hPa 0,0 l/m 0 min 0 min 0,0 UV-I 69 W/m 12,9 km/h (3 Bft)
25.02.2014 12:00 9,7 C 8,3 C 76 % 1008,5 hPa 0,0 l/m 0 min 0 min 0,0 UV-I 70 W/m 10,3 km/h (2 Bft)
25.02.2014 12:02 9,7 C 8,3 C 76 % 1008,5 hPa 0,0 l/m 0 min 0 min 0,0 UV-I 74 W/m 15,4 km/h (3 Bft)
25.02.2014 12:04 9,7 C 8,3 C 77 % 1008,5 hPa 0,0 l/m 0 min 0 min 0,0 UV-I 79 W/m 7,7 km/h (2 Bft)
25.02.2014 12:06 9,7 C 8,3 C 77 % 1008,6 hPa 0,0 l/m 0 min 0 min 0,0 UV-I 84 W/m 10,3 km/h (2 Bft)
25.02.2014 12:08 9,8 C 8,9 C 77 % 1008,6 hPa 0,0 l/m 0 min 0 min 0,0 UV-I 86 W/m 10,3 km/h (2 Bft)
25.02.2014 12:10 9,8 C 8,9 C 77 % 1008,6 hPa 0,0 l/m 0 min 0 min 0,0 UV-I 86 W/m 12,9 km/h (3 Bft)
25.02.2014 12:12 9,8 C 8,9 C 76 % 1008,6 hPa 0,0 l/m 0 min 0 min 0,0 UV-I 90 W/m 7,7 km/h (2 Bft)
25.02.2014 12:14 9,9 C 8,9 C 76 % 1008,6 hPa 0,0 l/m 0 min 0 min 0,0 UV-I 98 W/m 7,7 km/h (2 Bft)
25.02.2014 12:16 9,9 C 8,9 C 76 % 1008,6 hPa 0,0 l/m 0 min 0 min 0,0 UV-I 104 W/m 7,7 km/h (2 Bft)
25.02.2014 12:18 9,9 C 8,9 C 76 % 1008,6 hPa 0,0 l/m 0 min 0 min 0,0 UV-I 113 W/m 0,0 km/h (0 Bft)
25.02.2014 12:20 10,0 C 8,9 C 76 % 1008,6 hPa 0,0 l/m 0 min 0 min 0,0 UV-I 116 W/m 5,1 km/h (1 Bft)
25.02.2014 12:22 10,1 C 9,4 C 76 % 1008,6 hPa 0,0 l/m 0 min 0 min 0,0 UV-I 134 W/m 0,0 km/h (0 Bft)
25.02.2014 12:24 10,2 C 9,4 C 76 % 1008,7 hPa 0,0 l/m 0 min 0 min 0,0 UV-I 149 W/m 12,9 km/h (3 Bft)
25.02.2014 12:26 10,3 C 9,4 C 75 % 1008,7 hPa 0,0 l/m 0 min 0 min 0,0 UV-I 160 W/m 15,4 km/h (3 Bft)
25.02.2014 12:28 10,3 C 9,4 C 76 % 1008,6 hPa 0,0 l/m 0 min 0 min 0,0 UV-I 162 W/m 10,3 km/h (2 Bft)
25.02.2014 12:30 10,4 C 10,0 C 75 % 1008,6 hPa 0,0 l/m 0 min 0 min 0,0 UV-I 162 W/m 10,3 km/h (2 Bft)
25.02.2014 12:32 10,5 C 10,0 C 75 % 1008,7 hPa 0,0 l/m 0 min 0 min 0,0 UV-I 178 W/m 12,9 km/h (3 Bft)
25.02.2014 12:34 10,6 C 10,0 C 75 % 1008,6 hPa 0,0 l/m 0 min 0 min 0,0 UV-I 190 W/m 12,9 km/h (3 Bft)
25.02.2014 12:36 10,7 C 10,0 C 75 % 1008,6 hPa 0,0 l/m 0 min 0 min 0,0 UV-I 179 W/m 7,7 km/h (2 Bft)
25.02.2014 12:38 10,7 C 10,0 C 75 % 1008,7 hPa 0,0 l/m 0 min 0 min 0,0 UV-I 179 W/m 10,3 km/h (2 Bft)
25.02.2014 12:40 10,8 C 10,6 C 74 % 1008,6 hPa 0,0 l/m 0 min 0 min 0,0 UV-I 181 W/m 15,4 km/h (3 Bft)
25.02.2014 12:42 10,9 C 10,6 C 74 % 1008,5 hPa 0,0 l/m 0 min 0 min 0,0 UV-I 192 W/m 15,4 km/h (3 Bft)
25.02.2014 12:44 10,9 C 10,6 C 74 % 1008,5 hPa 0,0 l/m 0 min 0 min 0,0 UV-I 195 W/m 18,0 km/h (3 Bft)
25.02.2014 12:46 11,0 C 10,6 C 74 % 1008,5 hPa 0,0 l/m 0 min 0 min 0,0 UV-I 200 W/m 15,4 km/h (3 Bft)
25.02.2014 12:48 11,1 C 10,6 C 74 % 1008,5 hPa 0,0 l/m 0 min 0 min 0,0 UV-I 213 W/m 10,3 km/h (2 Bft)
25.02.2014 12:50 11,2 C 10,6 C 74 % 1008,4 hPa 0,0 l/m 0 min 0 min 0,0 UV-I 202 W/m 5,1 km/h (1 Bft)
25.02.2014 12:52 11,3 C 10,6 C 74 % 1008,5 hPa 0,0 l/m 0 min 0 min 0,0 UV-I 200 W/m 7,7 km/h (2 Bft)
25.02.2014 12:54 11,4 C 11,1 C 74 % 1008,5 hPa 0,0 l/m 0 min 0 min 0,0 UV-I 236 W/m 12,9 km/h (3 Bft)
25.02.2014 12:56 11,5 C 11,1 C 73 % 1008,5 hPa 0,0 l/m 0 min 0 min 0,6 UV-I 258 W/m 10,3 km/h (2 Bft)
25.02.2014 12:58 11,8 C 11,1 C 73 % 1008,4 hPa 0,0 l/m 2 min 0 min 0,0 UV-I 494 W/m 18,0 km/h (3 Bft)
25.02.2014 13:00 12,0 C 11,7 C 73 % 1008,4 hPa 0,0 l/m 0 min 0 min 0,0 UV-I 214 W/m 15,4 km/h (3 Bft)
25.02.2014 13:02 12,1 C 11,7 C 72 % 1008,4 hPa 0,0 l/m 0 min 0 min 0,5 UV-I 213 W/m 18,0 km/h (3 Bft)
25.02.2014 13:04 12,2 C 11,7 C 71 % 1008,4 hPa 0,0 l/m 0 min 0 min 0,0 UV-I 199 W/m 10,3 km/h (2 Bft)
25.02.2014 13:06 12,2 C 11,7 C 71 % 1008,4 hPa 0,0 l/m 0 min 0 min 0,0 UV-I 162 W/m 25,7 km/h (4 Bft)
25.02.2014 13:08 12,2 C 11,1 C 70 % 1008,3 hPa 0,0 l/m 0 min 0 min 0,0 UV-I 167 W/m 23,2 km/h (4 Bft)
25.02.2014 13:10 12,1 C 11,1 C 71 % 1008,3 hPa 0,0 l/m 0 min 0 min 0,0 UV-I 202 W/m 12,9 km/h (3 Bft)
25.02.2014 13:12 12,2 C 11,1 C 70 % 1008,3 hPa 0,0 l/m 0 min 0 min 0,0 UV-I 214 W/m 20,6 km/h (4 Bft)
25.02.2014 13:14 12,2 C 11,1 C 69 % 1008,3 hPa 0,0 l/m 0 min 0 min 0,0 UV-I 258 W/m 15,4 km/h (3 Bft)
25.02.2014 13:16 12,2 C 11,7 C 68 % 1008,4 hPa 0,0 l/m 0 min 0 min 0,0 UV-I 236 W/m 15,4 km/h (3 Bft)
25.02.2014 13:18 12,3 C 11,7 C 68 % 1008,3 hPa 0,0 l/m 2 min 0 min 0,5 UV-I 285 W/m 15,4 km/h (3 Bft)
25.02.2014 13:20 12,4 C 11,7 C 68 % 1008,3 hPa 0,0 l/m 2 min 0 min 0,0 UV-I 327 W/m 18,0 km/h (3 Bft)
25.02.2014 13:22 12,4 C 11,7 C 68 % 1008,3 hPa 0,0 l/m 0 min 0 min 0,0 UV-I 176 W/m 15,4 km/h (3 Bft)
25.02.2014 13:24 12,4 C 11,1 C 68 % 1008,2 hPa 0,0 l/m 0 min 0 min 0,0 UV-I 178 W/m 18,0 km/h (3 Bft)
25.02.2014 13:26 12,3 C 11,1 C 68 % 1008,2 hPa 0,0 l/m 0 min 0 min 0,0 UV-I 171 W/m 15,4 km/h (3 Bft)
25.02.2014 13:28 12,3 C 11,1 C 68 % 1008,2 hPa 0,0 l/m 0 min 0 min 0,0 UV-I 186 W/m 28,3 km/h (4 Bft)
25.02.2014 13:30 12,2 C 11,1 C 69 % 1008,2 hPa 0,0 l/m 0 min 0 min 0,0 UV-I 193 W/m 20,6 km/h (4 Bft)
25.02.2014 13:32 12,2 C 11,1 C 69 % 1008,2 hPa 0,0 l/m 0 min 0 min 0,0 UV-I 200 W/m 15,4 km/h (3 Bft)
25.02.2014 13:34 12,2 C 11,1 C 69 % 1008,2 hPa 0,0 l/m 0 min 0 min 0,0 UV-I 195 W/m 18,0 km/h (3 Bft)
25.02.2014 13:36 12,2 C 11,1 C 69 % 1008,2 hPa 0,0 l/m 0 min 0 min 0,0 UV-I 178 W/m 18,0 km/h (3 Bft)
25.02.2014 13:38 12,2 C 11,1 C 70 % 1008,2 hPa 0,0 l/m 0 min 0 min 0,0 UV-I 172 W/m 18,0 km/h (3 Bft)
25.02.2014 13:40 12,2 C 11,1 C 69 % 1008,2 hPa 0,0 l/m 0 min 0 min 0,0 UV-I 165 W/m 20,6 km/h (4 Bft)
25.02.2014 13:42 12,2 C 11,1 C 69 % 1008,1 hPa 0,0 l/m 0 min 0 min 0,0 UV-I 139 W/m 15,4 km/h (3 Bft)
25.02.2014 13:44 12,2 C 11,1 C 69 % 1008,2 hPa 0,0 l/m 0 min 0 min 0,0 UV-I 121 W/m 18,0 km/h (3 Bft)
25.02.2014 13:46 12,2 C 11,1 C 69 % 1008,1 hPa 0,0 l/m 0 min 0 min 0,0 UV-I 116 W/m 23,2 km/h (4 Bft)
25.02.2014 13:48 12,2 C 11,1 C 69 % 1008,1 hPa 0,0 l/m 0 min 0 min 0,0 UV-I 107 W/m 15,4 km/h (3 Bft)
25.02.2014 13:50 12,2 C 11,1 C 69 % 1008,1 hPa 0,0 l/m 0 min 0 min 0,0 UV-I 107 W/m 18,0 km/h (3 Bft)
25.02.2014 13:52 12,1 C 10,6 C 68 % 1008,1 hPa 0,0 l/m 0 min 0 min 0,0 UV-I 102 W/m 15,4 km/h (3 Bft)
25.02.2014 13:54 12,1 C 10,6 C 68 % 1008,1 hPa 0,0 l/m 0 min 0 min 0,0 UV-I 100 W/m 20,6 km/h (4 Bft)
25.02.2014 13:56 12,1 C 10,6 C 69 % 1008,1 hPa 0,0 l/m 0 min 0 min 0,0 UV-I 91 W/m 7,7 km/h (2 Bft)
25.02.2014 13:58 12,1 C 10,6 C 68 % 1008,0 hPa 0,0 l/m 0 min 0 min 0,0 UV-I 79 W/m 18,0 km/h (3 Bft)
25.02.2014 14:00 12,1 C 10,6 C 69 % 1008,1 hPa 0,0 l/m 0 min 0 min 0,0 UV-I 76 W/m 23,2 km/h (4 Bft)
25.02.2014 14:02 12,1 C 10,6 C 69 % 1008,1 hPa 0,0 l/m 0 min 0 min 0,0 UV-I 79 W/m 18,0 km/h (3 Bft)
25.02.2014 14:04 12,1 C 10,6 C 68 % 1008,1 hPa 0,0 l/m 0 min 0 min 0,0 UV-I 84 W/m 23,2 km/h (4 Bft)
25.02.2014 14:06 12,1 C 10,6 C 69 % 1008,0 hPa 0,0 l/m 0 min 0 min 0,0 UV-I 93 W/m 2,6 km/h (1 Bft)
25.02.2014 14:08 12,1 C 10,6 C 69 % 1008,0 hPa 0,0 l/m 0 min 0 min 0,0 UV-I 102 W/m 18,0 km/h (3 Bft)
25.02.2014 14:10 12,1 C 10,6 C 69 % 1008,0 hPa 0,0 l/m 0 min 0 min 0,0 UV-I 90 W/m 23,2 km/h (4 Bft)
25.02.2014 14:12 12,1 C 10,6 C 69 % 1007,9 hPa 0,0 l/m 0 min 0 min 0,0 UV-I 88 W/m 10,3 km/h (2 Bft)
25.02.2014 14:14 12,1 C 10,6 C 69 % 1008,0 hPa 0,0 l/m 0 min 0 min 0,0 UV-I 84 W/m 12,9 km/h (3 Bft)
25.02.2014 14:16 12,1 C 10,6 C 69 % 1008,0 hPa 0,0 l/m 0 min 0 min 0,0 UV-I 93 W/m 12,9 km/h (3 Bft)
25.02.2014 14:18 12,1 C 10,6 C 69 % 1007,9 hPa 0,0 l/m 0 min 0 min 0,0 UV-I 97 W/m 18,0 km/h (3 Bft)
25.02.2014 14:20 12,1 C 10,6 C 70 % 1008,0 hPa 0,0 l/m 0 min 0 min 0,0 UV-I 98 W/m 2,6 km/h (1 Bft)
25.02.2014 14:22 12,1 C 10,6 C 69 % 1008,0 hPa 0,0 l/m 0 min 0 min 0,0 UV-I 107 W/m 18,0 km/h (3 Bft)
25.02.2014 14:24 12,1 C 10,6 C 69 % 1007,9 hPa 0,0 l/m 0 min 0 min 0,0 UV-I 123 W/m 12,9 km/h (3 Bft)
25.02.2014 14:26 12,1 C 10,6 C 69 % 1007,9 hPa 0,0 l/m 0 min 0 min 0,0 UV-I 135 W/m 18,0 km/h (3 Bft)
25.02.2014 14:28 12,1 C 11,1 C 69 % 1007,9 hPa 0,0 l/m 0 min 0 min 0,0 UV-I 132 W/m 10,3 km/h (2 Bft)
25.02.2014 14:30 12,1 C 11,1 C 70 % 1007,9 hPa 0,0 l/m 0 min 0 min 0,0 UV-I 128 W/m 20,6 km/h (4 Bft)
25.02.2014 14:32 12,1 C 11,1 C 69 % 1007,9 hPa 0,0 l/m 0 min 0 min 0,0 UV-I 127 W/m 15,4 km/h (3 Bft)
25.02.2014 14:34 12,1 C 11,1 C 69 % 1007,8 hPa 0,0 l/m 0 min 0 min 0,0 UV-I 116 W/m 15,4 km/h (3 Bft)
25.02.2014 14:36 12,1 C 11,1 C 69 % 1007,8 hPa 0,0 l/m 0 min 0 min 0,0 UV-I 111 W/m 10,3 km/h (2 Bft)
25.02.2014 14:38 12,1 C 11,1 C 69 % 1007,8 hPa 0,0 l/m 0 min 0 min 0,0 UV-I 113 W/m 12,9 km/h (3 Bft)
25.02.2014 14:40 12,1 C 11,1 C 69 % 1007,8 hPa 0,0 l/m 0 min 0 min 0,0 UV-I 118 W/m 0,0 km/h (0 Bft)
25.02.2014 14:42 12,1 C 11,1 C 70 % 1007,9 hPa 0,0 l/m 0 min 0 min 0,0 UV-I 121 W/m 18,0 km/h (3 Bft)
25.02.2014 14:44 12,1 C 11,1 C 69 % 1007,9 hPa 0,0 l/m 0 min 0 min 0,0 UV-I 120 W/m 18,0 km/h (3 Bft)
25.02.2014 14:46 12,1 C 11,1 C 70 % 1008,0 hPa 0,0 l/m 0 min 0 min 0,0 UV-I 118 W/m 7,7 km/h (2 Bft)
25.02.2014 14:48 12,1 C 11,1 C 70 % 1008,0 hPa 0,0 l/m 0 min 0 min 0,0 UV-I 116 W/m 18,0 km/h (3 Bft)
25.02.2014 14:50 12,1 C 11,1 C 69 % 1008,0 hPa 0,0 l/m 0 min 0 min 0,0 UV-I 113 W/m 18,0 km/h (3 Bft)
25.02.2014 14:52 12,1 C 11,1 C 69 % 1008,0 hPa 0,0 l/m 0 min 0 min 0,0 UV-I 98 W/m 7,7 km/h (2 Bft)
25.02.2014 14:54 12,1 C 10,6 C 69 % 1008,0 hPa 0,0 l/m 0 min 0 min 0,0 UV-I 79 W/m 25,7 km/h (4 Bft)
25.02.2014 14:56 12,1 C 10,6 C 69 % 1008,0 hPa 0,0 l/m 0 min 0 min 0,0 UV-I 79 W/m 20,6 km/h (4 Bft)
25.02.2014 14:58 12,0 C 10,6 C 69 % 1008,1 hPa 0,0 l/m 0 min 0 min 0,0 UV-I 83 W/m 33,5 km/h (5 Bft)
25.02.2014 15:00 11,9 C 10,6 C 69 % 1008,0 hPa 0,0 l/m 0 min 0 min 0,0 UV-I 76 W/m 18,0 km/h (3 Bft)
25.02.2014 15:02 11,9 C 10,6 C 69 % 1008,0 hPa 0,0 l/m 0 min 0 min 0,0 UV-I 67 W/m 15,4 km/h (3 Bft)
25.02.2014 15:04 11,9 C 10,6 C 70 % 1008,0 hPa 0,0 l/m 0 min 0 min 0,0 UV-I 56 W/m 12,9 km/h (3 Bft)
25.02.2014 15:06 11,9 C 10,6 C 69 % 1008,0 hPa 0,0 l/m 0 min 0 min 0,0 UV-I 49 W/m 18,0 km/h (3 Bft)
25.02.2014 15:08 11,8 C 10,6 C 69 % 1008,0 hPa 0,0 l/m 0 min 0 min 0,0 UV-I 53 W/m 12,9 km/h (3 Bft)
25.02.2014 15:10 11,8 C 10,0 C 69 % 1008,0 hPa 0,0 l/m 0 min 0 min 0,0 UV-I 53 W/m 25,7 km/h (4 Bft)
25.02.2014 15:12 11,8 C 10,0 C 70 % 1008,0 hPa 0,0 l/m 0 min 0 min 0,0 UV-I 54 W/m 23,2 km/h (4 Bft)
25.02.2014 15:14 11,8 C 10,6 C 70 % 1008,0 hPa 0,0 l/m 0 min 0 min 0,0 UV-I 56 W/m 12,9 km/h (3 Bft)
25.02.2014 15:16 11,8 C 10,0 C 70 % 1008,0 hPa 0,0 l/m 0 min 0 min 0,0 UV-I 60 W/m 20,6 km/h (4 Bft)
25.02.2014 15:18 11,7 C 10,0 C 70 % 1008,0 hPa 0,0 l/m 0 min 0 min 0,0 UV-I 63 W/m 23,2 km/h (4 Bft)
25.02.2014 15:20 11,7 C 10,0 C 70 % 1008,0 hPa 0,0 l/m 0 min 0 min 0,0 UV-I 60 W/m 20,6 km/h (4 Bft)
25.02.2014 15:22 11,7 C 10,0 C 70 % 1008,1 hPa 0,0 l/m 0 min 0 min 0,0 UV-I 56 W/m 15,4 km/h (3 Bft)
25.02.2014 15:24 11,6 C 10,0 C 71 % 1008,0 hPa 0,0 l/m 0 min 0 min 0,0 UV-I 63 W/m 18,0 km/h (3 Bft)
25.02.2014 15:26 11,6 C 10,0 C 70 % 1008,0 hPa 0,0 l/m 0 min 0 min 0,0 UV-I 86 W/m 15,4 km/h (3 Bft)
25.02.2014 15:28 11,6 C 10,0 C 71 % 1008,0 hPa 0,0 l/m 0 min 0 min 0,0 UV-I 88 W/m 12,9 km/h (3 Bft)
25.02.2014 15:30 11,6 C 10,0 C 70 % 1008,1 hPa 0,0 l/m 0 min 0 min 0,0 UV-I 74 W/m 28,3 km/h (4 Bft)
25.02.2014 15:32 11,6 C 10,0 C 70 % 1008,1 hPa 0,0 l/m 0 min 0 min 0,0 UV-I 62 W/m 20,6 km/h (4 Bft)
25.02.2014 15:34 11,6 C 10,0 C 70 % 1008,1 hPa 0,0 l/m 0 min 0 min 0,0 UV-I 51 W/m 18,0 km/h (3 Bft)
25.02.2014 15:36 11,6 C 10,0 C 70 % 1008,1 hPa 0,0 l/m 0 min 0 min 0,0 UV-I 42 W/m 20,6 km/h (4 Bft)
25.02.2014 15:38 11,6 C 10,0 C 70 % 1008,0 hPa 0,0 l/m 0 min 0 min 0,0 UV-I 33 W/m 20,6 km/h (4 Bft)
25.02.2014 15:40 11,6 C 10,0 C 70 % 1008,1 hPa 0,0 l/m 0 min 0 min 0,0 UV-I 26 W/m 15,4 km/h (3 Bft)
25.02.2014 15:42 11,6 C 10,0 C 70 % 1008,1 hPa 0,0 l/m 0 min 0 min 0,0 UV-I 25 W/m 23,2 km/h (4 Bft)
25.02.2014 15:44 11,5 C 10,0 C 71 % 1008,1 hPa 0,0 l/m 0 min 0 min 0,0 UV-I 25 W/m 15,4 km/h (3 Bft)
25.02.2014 15:46 11,5 C 10,0 C 70 % 1008,0 hPa 0,0 l/m 0 min 0 min 0,0 UV-I 23 W/m 12,9 km/h (3 Bft)
25.02.2014 15:48 11,4 C 10,0 C 71 % 1008,1 hPa 0,0 l/m 0 min 0 min 0,0 UV-I 21 W/m 7,7 km/h (2 Bft)
25.02.2014 15:50 11,4 C 9,4 C 71 % 1008,2 hPa 0,0 l/m 0 min 0 min 0,0 UV-I 18 W/m 5,1 km/h (1 Bft)
25.02.2014 15:52 11,4 C 9,4 C 71 % 1008,2 hPa 0,0 l/m 0 min 0 min 0,0 UV-I 18 W/m 18,0 km/h (3 Bft)
25.02.2014 15:54 11,3 C 9,4 C 72 % 1008,2 hPa 0,0 l/m 0 min 0 min 0,0 UV-I 19 W/m 18,0 km/h (3 Bft)
25.02.2014 15:56 11,3 C 9,4 C 72 % 1008,1 hPa 0,0 l/m 0 min 0 min 0,0 UV-I 21 W/m 10,3 km/h (2 Bft)
25.02.2014 15:58 11,3 C 9,4 C 72 % 1008,1 hPa 0,0 l/m 0 min 0 min 0,0 UV-I 19 W/m 15,4 km/h (3 Bft)
25.02.2014 16:00 11,3 C 9,4 C 72 % 1008,0 hPa 0,0 l/m 0 min 0 min 0,0 UV-I 21 W/m 12,9 km/h (3 Bft)
25.02.2014 16:02 11,3 C 9,4 C 72 % 1008,1 hPa 0,0 l/m 0 min 0 min 0,0 UV-I 23 W/m 15,4 km/h (3 Bft)
25.02.2014 16:04 11,3 C 9,4 C 72 % 1008,1 hPa 0,0 l/m 0 min 0 min 0,0 UV-I 25 W/m 10,3 km/h (2 Bft)
25.02.2014 16:06 11,2 C 9,4 C 73 % 1008,1 hPa 0,0 l/m 0 min 0 min 0,0 UV-I 25 W/m 2,6 km/h (1 Bft)
25.02.2014 16:08 11,2 C 9,4 C 73 % 1008,1 hPa 0,0 l/m 0 min 0 min 0,0 UV-I 30 W/m 15,4 km/h (3 Bft)
25.02.2014 16:10 11,2 C 9,4 C 73 % 1008,1 hPa 0,0 l/m 0 min 0 min 0,0 UV-I 26 W/m 7,7 km/h (2 Bft)
25.02.2014 16:12 11,2 C 9,4 C 73 % 1008,1 hPa 0,0 l/m 0 min 0 min 0,0 UV-I 26 W/m 10,3 km/h (2 Bft)
25.02.2014 16:14 11,2 C 9,4 C 73 % 1008,1 hPa 0,0 l/m 0 min 0 min 0,0 UV-I 30 W/m 15,4 km/h (3 Bft)
25.02.2014 16:16 11,2 C 9,4 C 73 % 1008,0 hPa 0,0 l/m 0 min 0 min 0,0 UV-I 33 W/m 12,9 km/h (3 Bft)
25.02.2014 16:18 11,2 C 9,4 C 73 % 1008,1 hPa 0,0 l/m 0 min 0 min 0,0 UV-I 26 W/m 18,0 km/h (3 Bft)
25.02.2014 16:20 11,2 C 9,4 C 74 % 1008,1 hPa 0,0 l/m 0 min 0 min 0,0 UV-I 19 W/m 0,0 km/h (0 Bft)
25.02.2014 16:22 11,1 C 9,4 C 74 % 1008,2 hPa 0,0 l/m 0 min 0 min 0,0 UV-I 21 W/m 0,0 km/h (0 Bft)
25.02.2014 16:24 11,1 C 9,4 C 73 % 1008,1 hPa 0,0 l/m 0 min 0 min 0,0 UV-I 21 W/m 10,3 km/h (2 Bft)
25.02.2014 16:26 11,1 C 9,4 C 74 % 1008,1 hPa 0,0 l/m 0 min 0 min 0,0 UV-I 25 W/m 0,0 km/h (0 Bft)
25.02.2014 16:28 11,1 C 9,4 C 74 % 1008,1 hPa 0,0 l/m 0 min 0 min 0,0 UV-I 30 W/m 10,3 km/h (2 Bft)
25.02.2014 16:30 11,1 C 9,4 C 74 % 1008,1 hPa 0,0 l/m 0 min 0 min 0,0 UV-I 32 W/m 7,7 km/h (2 Bft)
25.02.2014 16:32 11,1 C 9,4 C 74 % 1008,1 hPa 0,0 l/m 0 min 0 min 0,0 UV-I 30 W/m 10,3 km/h (2 Bft)
25.02.2014 16:34 11,1 C 9,4 C 74 % 1008,1 hPa 0,0 l/m 0 min 0 min 0,0 UV-I 23 W/m 12,9 km/h (3 Bft)
25.02.2014 16:36 11,1 C 9,4 C 74 % 1008,1 hPa 0,0 l/m 0 min 0 min 0,0 UV-I 18 W/m 5,1 km/h (1 Bft)
25.02.2014 16:38 11,1 C 9,4 C 74 % 1008,2 hPa 0,0 l/m 0 min 0 min 0,0 UV-I 16 W/m 15,4 km/h (3 Bft)
25.02.2014 16:40 11,1 C 9,4 C 74 % 1008,2 hPa 0,0 l/m 0 min 0 min 0,0 UV-I 12 W/m 12,9 km/h (3 Bft)
25.02.2014 16:42 11,1 C 9,4 C 74 % 1008,2 hPa 0,0 l/m 0 min 0 min 0,0 UV-I 11 W/m 2,6 km/h (1 Bft)
25.02.2014 16:44 11,1 C 9,4 C 74 % 1008,2 hPa 0,0 l/m 0 min 0 min 0,0 UV-I 9 W/m 0,0 km/h (0 Bft)
25.02.2014 16:46 11,1 C 9,4 C 74 % 1008,2 hPa 0,0 l/m 0 min 0 min 0,0 UV-I 11 W/m 0,0 km/h (0 Bft)
25.02.2014 16:48 11,1 C 9,4 C 74 % 1008,2 hPa 0,0 l/m 0 min 0 min 0,0 UV-I 12 W/m 0,0 km/h (0 Bft)
25.02.2014 16:50 11,1 C 9,4 C 74 % 1008,3 hPa 0,0 l/m 0 min 0 min 0,0 UV-I 14 W/m 2,6 km/h (1 Bft)
25.02.2014 16:52 11,1 C 9,4 C 74 % 1008,2 hPa 0,0 l/m 0 min 0 min 0,0 UV-I 18 W/m 0,0 km/h (0 Bft)
25.02.2014 16:54 11,1 C 9,4 C 74 % 1008,2 hPa 0,0 l/m 0 min 0 min 0,0 UV-I 16 W/m 0,0 km/h (0 Bft)
25.02.2014 16:56 11,2 C 9,4 C 74 % 1008,2 hPa 0,0 l/m 0 min 0 min 0,0 UV-I 16 W/m 5,1 km/h (1 Bft)
25.02.2014 16:58 11,2 C 9,4 C 73 % 1008,1 hPa 0,0 l/m 0 min 0 min 0,0 UV-I 18 W/m 12,9 km/h (3 Bft)
25.02.2014 17:00 11,2 C 9,4 C 73 % 1008,2 hPa 0,0 l/m 0 min 0 min 0,0 UV-I 14 W/m 5,1 km/h (1 Bft)
25.02.2014 17:02 11,2 C 9,4 C 72 % 1008,2 hPa 0,0 l/m 0 min 0 min 0,0 UV-I 12 W/m 15,4 km/h (3 Bft)
25.02.2014 17:04 11,3 C 9,4 C 72 % 1008,2 hPa 0,0 l/m 0 min 0 min 0,0 UV-I 12 W/m 10,3 km/h (2 Bft)
25.02.2014 17:06 11,3 C 9,4 C 72 % 1008,2 hPa 0,0 l/m 0 min 0 min 0,0 UV-I 14 W/m 20,6 km/h (4 Bft)
25.02.2014 17:08 11,3 C 9,4 C 72 % 1008,2 hPa 0,0 l/m 0 min 0 min 0,0 UV-I 12 W/m 10,3 km/h (2 Bft)
25.02.2014 17:10 11,3 C 9,4 C 72 % 1008,3 hPa 0,0 l/m 0 min 0 min 0,0 UV-I 9 W/m 7,7 km/h (2 Bft)
25.02.2014 17:12 11,3 C 9,4 C 72 % 1008,3 hPa 0,0 l/m 0 min 0 min 0,0 UV-I 7 W/m 2,6 km/h (1 Bft)
25.02.2014 17:14 11,3 C 9,4 C 72 % 1008,3 hPa 0,0 l/m 0 min 0 min 0,0 UV-I 11 W/m 10,3 km/h (2 Bft)
25.02.2014 17:16 11,3 C 9,4 C 72 % 1008,2 hPa 0,0 l/m 0 min 0 min 0,0 UV-I 16 W/m 7,7 km/h (2 Bft)
25.02.2014 17:18 11,3 C 9,4 C 72 % 1008,3 hPa 0,0 l/m 0 min 0 min 0,0 UV-I 21 W/m 5,1 km/h (1 Bft)
25.02.2014 17:20 11,3 C 9,4 C 72 % 1008,3 hPa 0,0 l/m 0 min 0 min 0,0 UV-I 19 W/m 7,7 km/h (2 Bft)
25.02.2014 17:22 11,2 C 9,4 C 72 % 1008,3 hPa 0,0 l/m 0 min 0 min 0,0 UV-I 18 W/m 12,9 km/h (3 Bft)
25.02.2014 17:24 11,3 C 9,4 C 72 % 1008,3 hPa 0,0 l/m 0 min 0 min 0,0 UV-I 14 W/m 12,9 km/h (3 Bft)
25.02.2014 17:26 11,3 C 9,4 C 72 % 1008,3 hPa 0,0 l/m 0 min 0 min 0,0 UV-I 11 W/m 18,0 km/h (3 Bft)
25.02.2014 17:28 11,3 C 9,4 C 72 % 1008,3 hPa 0,0 l/m 0 min 0 min 0,0 UV-I 9 W/m 18,0 km/h (3 Bft)
25.02.2014 17:30 11,2 C 9,4 C 72 % 1008,3 hPa 0,0 l/m 0 min 0 min 0,0 UV-I 5 W/m 5,1 km/h (1 Bft)
25.02.2014 17:32 11,2 C 9,4 C 72 % 1008,3 hPa 0,0 l/m 0 min 0 min 0,0 UV-I 5 W/m 15,4 km/h (3 Bft)
25.02.2014 17:34 11,2 C 9,4 C 72 % 1008,3 hPa 0,0 l/m 0 min 0 min 0,0 UV-I 5 W/m 20,6 km/h (4 Bft)
25.02.2014 17:36 11,2 C 9,4 C 72 % 1008,3 hPa 0,0 l/m 0 min 0 min 0,0 UV-I 7 W/m 12,9 km/h (3 Bft)
25.02.2014 17:38 11,2 C 9,4 C 72 % 1008,3 hPa 0,0 l/m 0 min 0 min 0,0 UV-I 5 W/m 12,9 km/h (3 Bft)
25.02.2014 17:40 11,1 C 9,4 C 72 % 1008,3 hPa 0,0 l/m 0 min 0 min 0,0 UV-I 5 W/m 10,3 km/h (2 Bft)
25.02.2014 17:42 11,1 C 9,4 C 73 % 1008,3 hPa 0,0 l/m 0 min 0 min 0,0 UV-I 5 W/m 15,4 km/h (3 Bft)
25.02.2014 17:44 11,1 C 9,4 C 73 % 1008,4 hPa 0,0 l/m 0 min 0 min 0,0 UV-I 5 W/m 18,0 km/h (3 Bft)
25.02.2014 17:46 11,1 C 9,4 C 73 % 1008,4 hPa 0,0 l/m 0 min 0 min 0,0 UV-I 5 W/m 10,3 km/h (2 Bft)
25.02.2014 17:48 11,1 C 9,4 C 73 % 1008,4 hPa 0,0 l/m 0 min 0 min 0,0 UV-I 5 W/m 5,1 km/h (1 Bft)
25.02.2014 17:50 11,0 C 9,4 C 73 % 1008,3 hPa 0,0 l/m 0 min 0 min 0,0 UV-I 7 W/m 12,9 km/h (3 Bft)
25.02.2014 17:52 11,0 C 8,9 C 73 % 1008,3 hPa 0,0 l/m 0 min 0 min 0,0 UV-I 12 W/m 12,9 km/h (3 Bft)
25.02.2014 17:54 10,9 C 8,9 C 73 % 1008,3 hPa 0,0 l/m 0 min 0 min 0,0 UV-I 11 W/m 15,4 km/h (3 Bft)
25.02.2014 17:56 10,9 C 8,9 C 74 % 1008,3 hPa 0,0 l/m 0 min 0 min 0,0 UV-I 7 W/m 10,3 km/h (2 Bft)
25.02.2014 17:58 10,8 C 8,9 C 74 % 1008,3 hPa 0,0 l/m 0 min 0 min 0,0 UV-I 7 W/m 10,3 km/h (2 Bft)
25.02.2014 18:00 10,8 C 8,9 C 74 % 1008,3 hPa 0,0 l/m 0 min 0 min 0,0 UV-I 5 W/m 18,0 km/h (3 Bft)
25.02.2014 18:02 10,7 C 8,9 C 74 % 1008,3 hPa 0,0 l/m 0 min 0 min 0,0 UV-I 5 W/m 12,9 km/h (3 Bft)
25.02.2014 18:04 10,7 C 8,3 C 74 % 1008,3 hPa 0,0 l/m 0 min 0 min 0,0 UV-I 5 W/m 10,3 km/h (2 Bft)
25.02.2014 18:06 10,6 C 8,3 C 74 % 1008,4 hPa 0,0 l/m 0 min 0 min 0,0 UV-I 0 W/m 7,7 km/h (2 Bft)
25.02.2014 18:08 10,4 C 8,3 C 75 % 1008,4 hPa 0,0 l/m 0 min 0 min 0,0 UV-I 0 W/m 10,3 km/h (2 Bft)
25.02.2014 18:10 10,4 C 8,3 C 75 % 1008,4 hPa 0,0 l/m 0 min 0 min 0,0 UV-I 0 W/m 10,3 km/h (2 Bft)
25.02.2014 18:12 10,3 C 8,3 C 75 % 1008,4 hPa 0,0 l/m 0 min 0 min 0,0 UV-I 0 W/m 18,0 km/h (3 Bft)
25.02.2014 18:14 10,3 C 7,8 C 75 % 1008,4 hPa 0,0 l/m 0 min 0 min 0,0 UV-I 0 W/m 10,3 km/h (2 Bft)
25.02.2014 18:16 10,2 C 7,8 C 76 % 1008,4 hPa 0,0 l/m 0 min 0 min 0,0 UV-I 0 W/m 7,7 km/h (2 Bft)
25.02.2014 18:18 10,2 C 7,8 C 76 % 1008,5 hPa 0,0 l/m 0 min 0 min 0,0 UV-I 0 W/m 0,0 km/h (0 Bft)
25.02.2014 18:20 10,2 C 7,8 C 76 % 1008,7 hPa 0,0 l/m 0 min 0 min 0,0 UV-I 0 W/m 10,3 km/h (2 Bft)
25.02.2014 18:22 10,2 C 8,3 C 76 % 1008,6 hPa 0,0 l/m 0 min 0 min 0,0 UV-I 0 W/m 5,1 km/h (1 Bft)
25.02.2014 18:24 10,2 C 8,3 C 76 % 1008,6 hPa 0,0 l/m 0 min 0 min 0,0 UV-I 0 W/m 7,7 km/h (2 Bft)
25.02.2014 18:26 10,2 C 8,3 C 76 % 1008,7 hPa 0,0 l/m 0 min 0 min 0,0 UV-I 0 W/m 18,0 km/h (3 Bft)
25.02.2014 18:28 10,2 C 8,3 C 76 % 1008,6 hPa 0,0 l/m 0 min 0 min 0,0 UV-I 0 W/m 7,7 km/h (2 Bft)
25.02.2014 18:30 10,1 C 7,8 C 76 % 1008,5 hPa 0,0 l/m 0 min 0 min 0,0 UV-I 0 W/m 5,1 km/h (1 Bft)
25.02.2014 18:32 10,1 C 7,8 C 76 % 1008,5 hPa 0,0 l/m 0 min 0 min 0,0 UV-I 0 W/m 10,3 km/h (2 Bft)
25.02.2014 18:34 10,0 C 7,8 C 76 % 1008,5 hPa 0,0 l/m 0 min 0 min 0,0 UV-I 0 W/m 15,4 km/h (3 Bft)
25.02.2014 18:36 9,9 C 7,8 C 77 % 1008,5 hPa 0,0 l/m 0 min 0 min 0,0 UV-I 0 W/m 7,7 km/h (2 Bft)
25.02.2014 18:38 9,9 C 7,8 C 77 % 1008,6 hPa 0,0 l/m 0 min 0 min 0,0 UV-I 0 W/m 7,7 km/h (2 Bft)
25.02.2014 18:40 9,8 C 7,8 C 77 % 1008,6 hPa 0,0 l/m 0 min 0 min 0,0 UV-I 0 W/m 10,3 km/h (2 Bft)
25.02.2014 18:42 9,7 C 7,8 C 77 % 1008,6 hPa 0,0 l/m 0 min 0 min 0,0 UV-I 0 W/m 7,7 km/h (2 Bft)
25.02.2014 18:44 9,7 C 7,8 C 77 % 1008,6 hPa 0,0 l/m 0 min 0 min 0,0 UV-I 0 W/m 10,3 km/h (2 Bft)
25.02.2014 18:46 9,6 C 7,8 C 77 % 1008,6 hPa 0,0 l/m 0 min 0 min 0,0 UV-I 0 W/m 12,9 km/h (3 Bft)
25.02.2014 18:48 9,6 C 7,2 C 78 % 1008,7 hPa 0,0 l/m 0 min 0 min 0,0 UV-I 0 W/m 10,3 km/h (2 Bft)
25.02.2014 18:50 9,6 C 7,2 C 78 % 1008,7 hPa 0,0 l/m 0 min 0 min 0,0 UV-I 0 W/m 15,4 km/h (3 Bft)
25.02.2014 18:52 9,6 C 7,2 C 78 % 1008,7 hPa 0,0 l/m 0 min 0 min 0,0 UV-I 0 W/m 15,4 km/h (3 Bft)
25.02.2014 18:54 9,6 C 7,8 C 78 % 1008,7 hPa 0,0 l/m 0 min 0 min 0,0 UV-I 0 W/m 15,4 km/h (3 Bft)
25.02.2014 18:56 9,6 C 7,8 C 78 % 1008,7 hPa 0,0 l/m 0 min 0 min 0,0 UV-I 0 W/m 15,4 km/h (3 Bft)
25.02.2014 18:58 9,6 C 7,8 C 78 % 1008,7 hPa 0,0 l/m 0 min 0 min 0,0 UV-I 0 W/m 20,6 km/h (4 Bft)
25.02.2014 19:00 9,6 C 7,8 C 78 % 1008,6 hPa 0,0 l/m 0 min 0 min 0,0 UV-I 0 W/m 20,6 km/h (4 Bft)
25.02.2014 19:02 9,6 C 7,8 C 78 % 1008,7 hPa 0,0 l/m 0 min 0 min 0,0 UV-I 0 W/m 20,6 km/h (4 Bft)
25.02.2014 19:04 9,7 C 7,8 C 78 % 1008,7 hPa 0,0 l/m 0 min 0 min 0,0 UV-I 0 W/m 25,7 km/h (4 Bft)
25.02.2014 19:06 9,7 C 7,8 C 78 % 1008,6 hPa 0,0 l/m 0 min 0 min 0,0 UV-I 0 W/m 25,7 km/h (4 Bft)
25.02.2014 19:08 9,7 C 7,8 C 78 % 1008,6 hPa 0,0 l/m 0 min 0 min 0,0 UV-I 0 W/m 15,4 km/h (3 Bft)
25.02.2014 19:10 9,7 C 7,8 C 78 % 1008,7 hPa 0,0 l/m 0 min 0 min 0,0 UV-I 0 W/m 15,4 km/h (3 Bft)
25.02.2014 19:12 9,8 C 7,8 C 78 % 1008,6 hPa 0,0 l/m 0 min 0 min 0,0 UV-I 0 W/m 23,2 km/h (4 Bft)
25.02.2014 19:14 9,8 C 8,3 C 78 % 1008,7 hPa 0,0 l/m 0 min 0 min 0,0 UV-I 0 W/m 23,2 km/h (4 Bft)
25.02.2014 19:16 9,8 C 8,3 C 78 % 1008,7 hPa 0,0 l/m 0 min 0 min 0,0 UV-I 0 W/m 23,2 km/h (4 Bft)
25.02.2014 19:18 9,9 C 8,3 C 78 % 1008,9 hPa 0,0 l/m 0 min 0 min 0,0 UV-I 0 W/m 25,7 km/h (4 Bft)
25.02.2014 19:20 9,9 C 8,3 C 78 % 1008,9 hPa 0,0 l/m 0 min 0 min 0,0 UV-I 0 W/m 15,4 km/h (3 Bft)
25.02.2014 19:22 9,9 C 8,3 C 78 % 1008,9 hPa 0,0 l/m 0 min 0 min 0,0 UV-I 0 W/m 30,9 km/h (5 Bft)
25.02.2014 19:24 10,0 C 8,3 C 78 % 1009,0 hPa 0,0 l/m 0 min 0 min 0,0 UV-I 0 W/m 20,6 km/h (4 Bft)
25.02.2014 19:26 10,0 C 8,3 C 78 % 1009,0 hPa 0,0 l/m 0 min 0 min 0,0 UV-I 0 W/m 23,2 km/h (4 Bft)
25.02.2014 19:28 10,0 C 8,3 C 77 % 1008,9 hPa 0,0 l/m 0 min 0 min 0,0 UV-I 0 W/m 25,7 km/h (4 Bft)
25.02.2014 19:30 10,0 C 8,3 C 77 % 1008,9 hPa 0,0 l/m 0 min 0 min 0,0 UV-I 0 W/m 20,6 km/h (4 Bft)
25.02.2014 19:32 10,1 C 8,3 C 77 % 1008,8 hPa 0,0 l/m 0 min 0 min 0,0 UV-I 0 W/m 23,2 km/h (4 Bft)
25.02.2014 19:34 10,1 C 8,3 C 77 % 1008,7 hPa 0,0 l/m 0 min 0 min 0,0 UV-I 0 W/m 15,4 km/h (3 Bft)
25.02.2014 19:36 10,1 C 8,3 C 77 % 1008,7 hPa 0,0 l/m 0 min 0 min 0,0 UV-I 0 W/m 25,7 km/h (4 Bft)
25.02.2014 19:38 10,1 C 8,3 C 77 % 1008,7 hPa 0,0 l/m 0 min 0 min 0,0 UV-I 0 W/m 15,4 km/h (3 Bft)
25.02.2014 19:40 10,1 C 8,3 C 77 % 1008,7 hPa 0,0 l/m 0 min 0 min 0,0 UV-I 0 W/m 10,3 km/h (2 Bft)
25.02.2014 19:42 10,1 C 8,3 C 77 % 1008,7 hPa 0,0 l/m 0 min 0 min 0,0 UV-I 0 W/m 18,0 km/h (3 Bft)
25.02.2014 19:44 10,1 C 8,3 C 77 % 1008,7 hPa 0,0 l/m 0 min 0 min 0,0 UV-I 0 W/m 28,3 km/h (4 Bft)
25.02.2014 19:46 10,1 C 8,3 C 77 % 1008,7 hPa 0,0 l/m 0 min 0 min 0,0 UV-I 0 W/m 18,0 km/h (3 Bft)
25.02.2014 19:48 10,1 C 8,3 C 77 % 1008,7 hPa 0,0 l/m 0 min 0 min 0,0 UV-I 0 W/m 15,4 km/h (3 Bft)
25.02.2014 19:50 10,1 C 8,3 C 77 % 1008,7 hPa 0,0 l/m 0 min 0 min 0,0 UV-I 0 W/m 12,9 km/h (3 Bft)
25.02.2014 19:52 10,2 C 8,3 C 77 % 1008,7 hPa 0,0 l/m 0 min 0 min 0,0 UV-I 0 W/m 15,4 km/h (3 Bft)
25.02.2014 19:54 10,2 C 8,3 C 77 % 1008,7 hPa 0,0 l/m 0 min 0 min 0,0 UV-I 0 W/m 20,6 km/h (4 Bft)
25.02.2014 19:56 10,2 C 8,3 C 77 % 1008,7 hPa 0,0 l/m 0 min 0 min 0,0 UV-I 0 W/m 12,9 km/h (3 Bft)
25.02.2014 19:58 10,2 C 8,3 C 77 % 1008,7 hPa 0,0 l/m 0 min 0 min 0,0 UV-I 0 W/m 15,4 km/h (3 Bft)
25.02.2014 20:00 10,2 C 8,3 C 77 % 1008,7 hPa 0,0 l/m 0 min 0 min 0,0 UV-I 0 W/m 23,2 km/h (4 Bft)
25.02.2014 20:02 10,2 C 8,9 C 77 % 1008,6 hPa 0,0 l/m 0 min 0 min 0,0 UV-I 0 W/m 20,6 km/h (4 Bft)
25.02.2014 20:04 10,2 C 8,3 C 76 % 1008,6 hPa 0,0 l/m 0 min 0 min 0,0 UV-I 0 W/m 28,3 km/h (4 Bft)
25.02.2014 20:06 10,2 C 8,3 C 76 % 1008,6 hPa 0,0 l/m 0 min 0 min 0,0 UV-I 0 W/m 15,4 km/h (3 Bft)
25.02.2014 20:08 10,3 C 8,9 C 76 % 1008,6 hPa 0,0 l/m 0 min 0 min 0,0 UV-I 0 W/m 28,3 km/h (4 Bft)
25.02.2014 20:10 10,3 C 8,9 C 76 % 1008,6 hPa 0,0 l/m 0 min 0 min 0,0 UV-I 0 W/m 25,7 km/h (4 Bft)
25.02.2014 20:12 10,3 C 8,9 C 76 % 1008,7 hPa 0,0 l/m 0 min 0 min 0,0 UV-I 0 W/m 25,7 km/h (4 Bft)
25.02.2014 20:14 10,3 C 8,9 C 76 % 1008,6 hPa 0,0 l/m 0 min 0 min 0,0 UV-I 0 W/m 12,9 km/h (3 Bft)
25.02.2014 20:16 10,3 C 8,3 C 76 % 1008,5 hPa 0,0 l/m 0 min 0 min 0,0 UV-I 0 W/m 12,9 km/h (3 Bft)
25.02.2014 20:18 10,3 C 8,3 C 76 % 1008,5 hPa 0,0 l/m 0 min 0 min 0,0 UV-I 0 W/m 23,2 km/h (4 Bft)
25.02.2014 20:20 10,3 C 8,3 C 76 % 1008,6 hPa 0,0 l/m 0 min 0 min 0,0 UV-I 0 W/m 12,9 km/h (3 Bft)
25.02.2014 20:22 10,2 C 8,3 C 76 % 1008,6 hPa 0,0 l/m 0 min 0 min 0,0 UV-I 0 W/m 10,3 km/h (2 Bft)
25.02.2014 20:24 10,1 C 8,3 C 76 % 1008,6 hPa 0,0 l/m 0 min 0 min 0,0 UV-I 0 W/m 7,7 km/h (2 Bft)
25.02.2014 20:26 10,1 C 7,8 C 76 % 1008,7 hPa 0,0 l/m 0 min 0 min 0,0 UV-I 0 W/m 10,3 km/h (2 Bft)
25.02.2014 20:28 9,9 C 7,8 C 77 % 1008,8 hPa 0,0 l/m 0 min 0 min 0,0 UV-I 0 W/m 10,3 km/h (2 Bft)
25.02.2014 20:30 9,9 C 7,8 C 77 % 1008,7 hPa 0,0 l/m 0 min 0 min 0,0 UV-I 0 W/m 18,0 km/h (3 Bft)
25.02.2014 20:32 9,8 C 7,8 C 77 % 1008,7 hPa 0,0 l/m 0 min 0 min 0,0 UV-I 0 W/m 18,0 km/h (3 Bft)
25.02.2014 20:34 9,8 C 7,8 C 77 % 1008,8 hPa 0,0 l/m 0 min 0 min 0,0 UV-I 0 W/m 23,2 km/h (4 Bft)
25.02.2014 20:36 9,8 C 7,8 C 77 % 1008,8 hPa 0,0 l/m 0 min 0 min 0,0 UV-I 0 W/m 18,0 km/h (3 Bft)
25.02.2014 20:38 9,8 C 7,8 C 77 % 1008,7 hPa 0,0 l/m 0 min 0 min 0,0 UV-I 0 W/m 12,9 km/h (3 Bft)
25.02.2014 20:40 9,8 C 7,8 C 77 % 1008,8 hPa 0,0 l/m 0 min 0 min 0,0 UV-I 0 W/m 12,9 km/h (3 Bft)
25.02.2014 20:42 9,8 C 7,8 C 77 % 1008,8 hPa 0,0 l/m 0 min 0 min 0,0 UV-I 0 W/m 20,6 km/h (4 Bft)
25.02.2014 20:44 9,7 C 7,8 C 77 % 1008,8 hPa 0,0 l/m 0 min 0 min 0,0 UV-I 0 W/m 28,3 km/h (4 Bft)
25.02.2014 20:46 9,8 C 7,8 C 77 % 1008,9 hPa 0,0 l/m 0 min 0 min 0,0 UV-I 0 W/m 15,4 km/h (3 Bft)
25.02.2014 20:48 9,8 C 7,8 C 77 % 1009,0 hPa 0,0 l/m 0 min 0 min 0,0 UV-I 0 W/m 15,4 km/h (3 Bft)
25.02.2014 20:50 9,8 C 7,8 C 77 % 1009,0 hPa 0,0 l/m 0 min 0 min 0,0 UV-I 0 W/m 28,3 km/h (4 Bft)
25.02.2014 20:52 9,8 C 7,8 C 77 % 1009,0 hPa 0,0 l/m 0 min 0 min 0,0 UV-I 0 W/m 30,9 km/h (5 Bft)
25.02.2014 20:54 9,8 C 7,8 C 77 % 1009,0 hPa 0,0 l/m 0 min 0 min 0,0 UV-I 0 W/m 20,6 km/h (4 Bft)
25.02.2014 20:56 9,8 C 8,3 C 77 % 1009,0 hPa 0,0 l/m 0 min 0 min 0,0 UV-I 0 W/m 15,4 km/h (3 Bft)
25.02.2014 20:58 9,9 C 8,3 C 77 % 1009,0 hPa 0,0 l/m 0 min 0 min 0,0 UV-I 0 W/m 12,9 km/h (3 Bft)
25.02.2014 21:00 9,9 C 8,3 C 77 % 1009,0 hPa 0,0 l/m 0 min 0 min 0,0 UV-I 0 W/m 23,2 km/h (4 Bft)
25.02.2014 21:02 9,9 C 8,3 C 77 % 1009,0 hPa 0,0 l/m 0 min 0 min 0,0 UV-I 0 W/m 23,2 km/h (4 Bft)
25.02.2014 21:04 10,0 C 8,3 C 77 % 1009,0 hPa 0,0 l/m 0 min 0 min 0,0 UV-I 0 W/m 18,0 km/h (3 Bft)
25.02.2014 21:06 10,0 C 8,3 C 77 % 1008,9 hPa 0,0 l/m 0 min 0 min 0,0 UV-I 0 W/m 12,9 km/h (3 Bft)
25.02.2014 21:08 10,0 C 8,3 C 77 % 1008,9 hPa 0,0 l/m 0 min 0 min 0,0 UV-I 0 W/m 28,3 km/h (4 Bft)
25.02.2014 21:10 10,0 C 8,3 C 77 % 1008,9 hPa 0,0 l/m 0 min 0 min 0,0 UV-I 0 W/m 30,9 km/h (5 Bft)
25.02.2014 21:12 10,1 C 8,3 C 76 % 1008,9 hPa 0,0 l/m 0 min 0 min 0,0 UV-I 0 W/m 25,7 km/h (4 Bft)
25.02.2014 21:14 10,1 C 8,3 C 76 % 1008,9 hPa 0,0 l/m 0 min 0 min 0,0 UV-I 0 W/m 30,9 km/h (5 Bft)
25.02.2014 21:16 10,1 C 8,3 C 76 % 1008,8 hPa 0,0 l/m 0 min 0 min 0,0 UV-I 0 W/m 25,7 km/h (4 Bft)
25.02.2014 21:18 10,1 C 8,3 C 76 % 1008,8 hPa 0,0 l/m 0 min 0 min 0,0 UV-I 0 W/m 25,7 km/h (4 Bft)
25.02.2014 21:20 10,1 C 8,3 C 76 % 1008,8 hPa 0,0 l/m 0 min 0 min 0,0 UV-I 0 W/m 25,7 km/h (4 Bft)
25.02.2014 21:22 10,1 C 8,3 C 76 % 1008,8 hPa 0,0 l/m 0 min 0 min 0,0 UV-I 0 W/m 20,6 km/h (4 Bft)
25.02.2014 21:24 10,1 C 8,3 C 76 % 1008,8 hPa 0,0 l/m 0 min 0 min 0,0 UV-I 0 W/m 18,0 km/h (3 Bft)
25.02.2014 21:26 10,1 C 8,3 C 76 % 1008,8 hPa 0,0 l/m 0 min 0 min 0,0 UV-I 0 W/m 23,2 km/h (4 Bft)
25.02.2014 21:28 10,1 C 8,3 C 76 % 1008,9 hPa 0,0 l/m 0 min 0 min 0,0 UV-I 0 W/m 18,0 km/h (3 Bft)
25.02.2014 21:30 10,1 C 8,3 C 76 % 1008,9 hPa 0,0 l/m 0 min 0 min 0,0 UV-I 0 W/m 23,2 km/h (4 Bft)
25.02.2014 21:32 10,1 C 8,3 C 76 % 1009,0 hPa 0,0 l/m 0 min 0 min 0,0 UV-I 0 W/m 15,4 km/h (3 Bft)
25.02.2014 21:34 10,1 C 8,3 C 76 % 1008,9 hPa 0,0 l/m 0 min 0 min 0,0 UV-I 0 W/m 28,3 km/h (4 Bft)
25.02.2014 21:36 10,1 C 8,3 C 76 % 1009,0 hPa 0,0 l/m 0 min 0 min 0,0 UV-I 0 W/m 28,3 km/h (4 Bft)
25.02.2014 21:38 10,1 C 8,3 C 76 % 1009,0 hPa 0,0 l/m 0 min 0 min 0,0 UV-I 0 W/m 18,0 km/h (3 Bft)
25.02.2014 21:40 10,1 C 8,3 C 76 % 1009,0 hPa 0,0 l/m 0 min 0 min 0,0 UV-I 0 W/m 23,2 km/h (4 Bft)
25.02.2014 21:42 10,0 C 8,3 C 77 % 1009,1 hPa 0,0 l/m 0 min 0 min 0,0 UV-I 0 W/m 18,0 km/h (3 Bft)
25.02.2014 21:44 10,0 C 8,3 C 77 % 1009,1 hPa 0,0 l/m 0 min 0 min 0,0 UV-I 0 W/m 23,2 km/h (4 Bft)
25.02.2014 21:46 9,9 C 8,3 C 77 % 1009,0 hPa 0,0 l/m 0 min 0 min 0,0 UV-I 0 W/m 18,0 km/h (3 Bft)
25.02.2014 21:48 9,9 C 8,3 C 77 % 1009,1 hPa 0,0 l/m 0 min 0 min 0,0 UV-I 0 W/m 18,0 km/h (3 Bft)
25.02.2014 21:50 9,9 C 7,8 C 78 % 1009,1 hPa 0,0 l/m 0 min 2 min 0,0 UV-I 0 W/m 10,3 km/h (2 Bft)
25.02.2014 21:52 9,9 C 7,8 C 78 % 1009,1 hPa 0,0 l/m 0 min 2 min 0,0 UV-I 0 W/m 18,0 km/h (3 Bft)
25.02.2014 21:54 9,8 C 7,2 C 79 % 1009,1 hPa 0,0 l/m 0 min 0 min 0,0 UV-I 0 W/m 18,0 km/h (3 Bft)
25.02.2014 21:56 9,7 C 7,2 C 79 % 1009,1 hPa 0,0 l/m 0 min 0 min 0,0 UV-I 0 W/m 18,0 km/h (3 Bft)
25.02.2014 21:58 9,7 C 7,2 C 79 % 1009,1 hPa 0,0 l/m 0 min 0 min 0,0 UV-I 0 W/m 12,9 km/h (3 Bft)
25.02.2014 22:00 9,6 C 7,2 C 79 % 1009,1 hPa 0,0 l/m 0 min 2 min 0,0 UV-I 0 W/m 18,0 km/h (3 Bft)
25.02.2014 22:02 9,6 C 7,2 C 80 % 1009,1 hPa 0,0 l/m 0 min 2 min 0,0 UV-I 0 W/m 10,3 km/h (2 Bft)
25.02.2014 22:04 9,5 C 7,2 C 80 % 1009,2 hPa 0,0 l/m 0 min 0 min 0,0 UV-I 0 W/m 12,9 km/h (3 Bft)
25.02.2014 22:06 9,4 C 7,2 C 80 % 1009,1 hPa 0,0 l/m 0 min 0 min 0,0 UV-I 0 W/m 12,9 km/h (3 Bft)
25.02.2014 22:08 9,4 C 7,2 C 80 % 1009,1 hPa 0,0 l/m 0 min 0 min 0,0 UV-I 0 W/m 15,4 km/h (3 Bft)
25.02.2014 22:10 9,4 C 7,2 C 80 % 1009,2 hPa 0,0 l/m 0 min 0 min 0,0 UV-I 0 W/m 12,9 km/h (3 Bft)
25.02.2014 22:12 9,4 C 7,2 C 80 % 1009,2 hPa 0,0 l/m 0 min 0 min 0,0 UV-I 0 W/m 25,7 km/h (4 Bft)
25.02.2014 22:14 9,5 C 7,2 C 80 % 1009,2 hPa 0,0 l/m 0 min 0 min 0,0 UV-I 0 W/m 18,0 km/h (3 Bft)
25.02.2014 22:16 9,5 C 7,2 C 80 % 1009,1 hPa 0,0 l/m 0 min 0 min 0,0 UV-I 0 W/m 25,7 km/h (4 Bft)
25.02.2014 22:18 9,5 C 7,8 C 80 % 1009,1 hPa 0,0 l/m 0 min 0 min 0,0 UV-I 0 W/m 23,2 km/h (4 Bft)
25.02.2014 22:20 9,6 C 7,8 C 81 % 1009,1 hPa 0,0 l/m 0 min 0 min 0,0 UV-I 0 W/m 18,0 km/h (3 Bft)
25.02.2014 22:22 9,6 C 7,8 C 81 % 1009,1 hPa 0,0 l/m 0 min 2 min 0,0 UV-I 0 W/m 18,0 km/h (3 Bft)
25.02.2014 22:24 9,5 C 7,8 C 81 % 1009,1 hPa 0,0 l/m 0 min 0 min 0,0 UV-I 0 W/m 20,6 km/h (4 Bft)
25.02.2014 22:26 9,5 C 7,8 C 82 % 1009,0 hPa 0,0 l/m 0 min 0 min 0,0 UV-I 0 W/m 10,3 km/h (2 Bft)
25.02.2014 22:28 9,5 C 7,8 C 82 % 1009,0 hPa 0,0 l/m 0 min 0 min 0,0 UV-I 0 W/m 12,9 km/h (3 Bft)
25.02.2014 22:30 9,5 C 7,8 C 82 % 1008,9 hPa 0,0 l/m 0 min 0 min 0,0 UV-I 0 W/m 12,9 km/h (3 Bft)
25.02.2014 22:32 9,4 C 7,8 C 82 % 1008,9 hPa 0,0 l/m 0 min 0 min 0,0 UV-I 0 W/m 18,0 km/h (3 Bft)
25.02.2014 22:34 9,4 C 7,8 C 82 % 1008,9 hPa 0,0 l/m 0 min 0 min 0,0 UV-I 0 W/m 15,4 km/h (3 Bft)
25.02.2014 22:36 9,4 C 7,8 C 82 % 1008,9 hPa 0,0 l/m 0 min 0 min 0,0 UV-I 0 W/m 15,4 km/h (3 Bft)
25.02.2014 22:38 9,5 C 7,8 C 82 % 1008,9 hPa 0,0 l/m 0 min 0 min 0,0 UV-I 0 W/m 20,6 km/h (4 Bft)
25.02.2014 22:40 9,5 C 7,8 C 82 % 1008,8 hPa 0,0 l/m 0 min 0 min 0,0 UV-I 0 W/m 12,9 km/h (3 Bft)
25.02.2014 22:42 9,5 C 7,8 C 82 % 1008,9 hPa 0,0 l/m 0 min 0 min 0,0 UV-I 0 W/m 18,0 km/h (3 Bft)
25.02.2014 22:44 9,4 C 7,8 C 82 % 1008,9 hPa 0,0 l/m 0 min 0 min 0,0 UV-I 0 W/m 12,9 km/h (3 Bft)
25.02.2014 22:46 9,4 C 7,8 C 82 % 1008,9 hPa 0,0 l/m 0 min 0 min 0,0 UV-I 0 W/m 15,4 km/h (3 Bft)
25.02.2014 22:48 9,4 C 7,8 C 82 % 1009,0 hPa 0,0 l/m 0 min 0 min 0,0 UV-I 0 W/m 15,4 km/h (3 Bft)
25.02.2014 22:50 9,4 C 7,8 C 82 % 1009,0 hPa 0,0 l/m 0 min 0 min 0,0 UV-I 0 W/m 18,0 km/h (3 Bft)
25.02.2014 22:52 9,3 C 7,8 C 82 % 1009,1 hPa 0,0 l/m 0 min 0 min 0,0 UV-I 0 W/m 10,3 km/h (2 Bft)
25.02.2014 22:54 9,3 C 7,8 C 82 % 1009,0 hPa 0,0 l/m 0 min 0 min 0,0 UV-I 0 W/m 15,4 km/h (3 Bft)
25.02.2014 22:56 9,3 C 7,8 C 82 % 1009,1 hPa 0,0 l/m 0 min 0 min 0,0 UV-I 0 W/m 10,3 km/h (2 Bft)
25.02.2014 22:58 9,2 C 7,8 C 82 % 1009,1 hPa 0,0 l/m 0 min 0 min 0,0 UV-I 0 W/m 15,4 km/h (3 Bft)
25.02.2014 23:00 9,2 C 7,8 C 82 % 1009,1 hPa 0,0 l/m 0 min 0 min 0,0 UV-I 0 W/m 10,3 km/h (2 Bft)
25.02.2014 23:02 9,3 C 7,8 C 82 % 1009,1 hPa 0,0 l/m 0 min 0 min 0,0 UV-I 0 W/m 15,4 km/h (3 Bft)
25.02.2014 23:04 9,3 C 7,8 C 82 % 1009,2 hPa 0,0 l/m 0 min 0 min 0,0 UV-I 0 W/m 15,4 km/h (3 Bft)
25.02.2014 23:06 9,3 C 7,8 C 82 % 1009,2 hPa 0,0 l/m 0 min 0 min 0,0 UV-I 0 W/m 12,9 km/h (3 Bft)
25.02.2014 23:08 9,3 C 7,8 C 82 % 1009,2 hPa 0,0 l/m 0 min 0 min 0,0 UV-I 0 W/m 10,3 km/h (2 Bft)
25.02.2014 23:10 9,3 C 7,8 C 82 % 1009,2 hPa 0,0 l/m 0 min 0 min 0,0 UV-I 0 W/m 12,9 km/h (3 Bft)
25.02.2014 23:12 9,3 C 7,8 C 82 % 1009,3 hPa 0,0 l/m 0 min 0 min 0,0 UV-I 0 W/m 15,4 km/h (3 Bft)
25.02.2014 23:14 9,3 C 7,8 C 82 % 1009,4 hPa 0,0 l/m 0 min 0 min 0,0 UV-I 0 W/m 12,9 km/h (3 Bft)
25.02.2014 23:16 9,4 C 7,8 C 82 % 1009,8 hPa 0,0 l/m 0 min 2 min 0,0 UV-I 0 W/m 12,9 km/h (3 Bft)
25.02.2014 23:18 9,4 C 7,2 C 83 % 1009,9 hPa 0,0 l/m 0 min 2 min 0,0 UV-I 0 W/m 12,9 km/h (3 Bft)
25.02.2014 23:20 9,3 C 7,2 C 83 % 1010,1 hPa 0,0 l/m 0 min 2 min 0,0 UV-I 0 W/m 25,7 km/h (4 Bft)
25.02.2014 23:22 9,2 C 6,7 C 84 % 1010,0 hPa 0,0 l/m 0 min 2 min 0,0 UV-I 0 W/m 10,3 km/h (2 Bft)
25.02.2014 23:24 9,1 C 6,7 C 85 % 1010,0 hPa 0,0 l/m 0 min 2 min 0,0 UV-I 0 W/m 10,3 km/h (2 Bft)
25.02.2014 23:26 8,9 C 6,7 C 85 % 1009,9 hPa 0,0 l/m 0 min 2 min 0,0 UV-I 0 W/m 10,3 km/h (2 Bft)
25.02.2014 23:28 8,8 C 6,7 C 86 % 1009,9 hPa 0,0 l/m 0 min 2 min 0,0 UV-I 0 W/m 7,7 km/h (2 Bft)
25.02.2014 23:30 8,7 C 6,7 C 87 % 1009,9 hPa 0,0 l/m 0 min 2 min 0,0 UV-I 0 W/m 7,7 km/h (2 Bft)
25.02.2014 23:32 8,6 C 6,1 C 87 % 1009,9 hPa 0,0 l/m 0 min 2 min 0,0 UV-I 0 W/m 7,7 km/h (2 Bft)
25.02.2014 23:34 8,4 C 6,1 C 88 % 1010,0 hPa 0,0 l/m 0 min 2 min 0,0 UV-I 0 W/m 12,9 km/h (3 Bft)
25.02.2014 23:36 8,4 C 6,1 C 88 % 1010,0 hPa 0,0 l/m 0 min 2 min 0,0 UV-I 0 W/m 2,6 km/h (1 Bft)
25.02.2014 23:38 8,3 C 6,1 C 88 % 1010,0 hPa 0,0 l/m 0 min 2 min 0,0 UV-I 0 W/m 2,6 km/h (1 Bft)
25.02.2014 23:40 8,2 C 6,1 C 89 % 1010,0 hPa 0,0 l/m 0 min 2 min 0,0 UV-I 0 W/m 7,7 km/h (2 Bft)
25.02.2014 23:42 8,2 C 6,1 C 89 % 1010,0 hPa 0,0 l/m 0 min 2 min 0,0 UV-I 0 W/m 0,0 km/h (0 Bft)
25.02.2014 23:44 8,1 C 6,1 C 90 % 1010,0 hPa 0,0 l/m 0 min 2 min 0,0 UV-I 0 W/m 0,0 km/h (0 Bft)
25.02.2014 23:46 8,1 C 6,1 C 90 % 1010,0 hPa 0,0 l/m 0 min 2 min 0,0 UV-I 0 W/m 5,1 km/h (1 Bft)
25.02.2014 23:48 8,0 C 6,1 C 90 % 1010,0 hPa 0,0 l/m 0 min 2 min 0,0 UV-I 0 W/m 7,7 km/h (2 Bft)
25.02.2014 23:50 7,9 C 6,1 C 90 % 1010,0 hPa 0,0 l/m 0 min 2 min 0,0 UV-I 0 W/m 12,9 km/h (3 Bft)
25.02.2014 23:52 7,9 C 6,1 C 91 % 1010,0 hPa 0,2 l/m 0 min 2 min 0,0 UV-I 0 W/m 5,1 km/h (1 Bft)
25.02.2014 23:54 7,9 C 6,1 C 91 % 1010,1 hPa 0,0 l/m 0 min 2 min 0,0 UV-I 0 W/m 7,7 km/h (2 Bft)
25.02.2014 23:56 7,9 C 6,1 C 91 % 1009,9 hPa 0,0 l/m 0 min 2 min 0,0 UV-I 0 W/m 15,4 km/h (3 Bft)
25.02.2014 23:58 7,8 C 6,1 C 91 % 1009,9 hPa 0,0 l/m 0 min 2 min 0,0 UV-I 0 W/m 7,7 km/h (2 Bft)
_ Min-Zeit 06:48 04:44 13:16 14:34 - - - - - 00:30
Minimum _ 5,3 C 3,3 C 68 % 1007,8 hPa - - - - - 0,0 km/h (0 Bft)
_ Max-Zeit 13:20 13:00 23:52 00:06 23:52 08:36 21:50 12:56 12:58 14:58
Maximum _ 12,4 C 11,7 C 91 % 1011,2 hPa 0,2 l/m 2 min 2 min 0,6 UV-I 494 W/m 33,5 km/h
SO (5 Bft)
Durchschnitt _ 8,6 C 7,0 C 79 % 1009,0 hPa #0,2 l/m #32 min. #54 min. 0,5 UV-I 88 W/m 13,3 km/h (3 Bft)
© 2014 W. Hausmann